Wetterdaten: Sonntag, 31.08.2014
Datum Zeit Temp. Aussen +5cm Feuchte Auss Luftdruck Regen Sonnenschein Regendauer UV Solar Windben
31.08.2014 00:00 14,2 C 12,8 C 96 % 1015,6 hPa 0,0 l/m 0 min 0 min 0,0 UV-I 0 W/m 7,1 km/h (2 Bft)
31.08.2014 00:02 14,2 C 12,8 C 96 % 1015,6 hPa 0,0 l/m 0 min 0 min 0,0 UV-I 0 W/m 10,7 km/h (2 Bft)
31.08.2014 00:05 14,2 C 12,8 C 96 % 1015,6 hPa 0,0 l/m 0 min 0 min 0,0 UV-I 0 W/m 7,1 km/h (2 Bft)
31.08.2014 00:06 14,2 C 12,8 C 96 % 1015,6 hPa 0,0 l/m 0 min 0 min 0,0 UV-I 0 W/m 0,0 km/h (0 Bft)
31.08.2014 00:08 14,2 C 12,8 C 96 % 1015,6 hPa 0,0 l/m 0 min 0 min 0,0 UV-I 0 W/m 7,1 km/h (2 Bft)
31.08.2014 00:10 14,2 C 12,8 C 96 % 1015,6 hPa 0,0 l/m 0 min 0 min 0,0 UV-I 0 W/m 14,2 km/h (3 Bft)
31.08.2014 00:12 14,2 C 13,3 C 96 % 1015,6 hPa 0,0 l/m 0 min 0 min 0,0 UV-I 0 W/m 10,7 km/h (2 Bft)
31.08.2014 00:14 14,2 C 13,3 C 96 % 1015,6 hPa 0,0 l/m 0 min 0 min 0,0 UV-I 0 W/m 10,7 km/h (2 Bft)
31.08.2014 00:16 14,2 C 13,3 C 96 % 1015,6 hPa 0,0 l/m 0 min 0 min 0,0 UV-I 0 W/m 3,5 km/h (1 Bft)
31.08.2014 00:18 14,2 C 13,3 C 96 % 1015,6 hPa 0,0 l/m 0 min 0 min 0,0 UV-I 0 W/m 14,2 km/h (3 Bft)
31.08.2014 00:20 14,2 C 13,3 C 96 % 1015,6 hPa 0,0 l/m 0 min 0 min 0,0 UV-I 0 W/m 14,2 km/h (3 Bft)
31.08.2014 00:22 14,2 C 13,3 C 96 % 1015,6 hPa 0,0 l/m 0 min 0 min 0,0 UV-I 0 W/m 14,2 km/h (3 Bft)
31.08.2014 00:24 14,2 C 13,3 C 96 % 1015,6 hPa 0,0 l/m 0 min 0 min 0,0 UV-I 0 W/m 21,3 km/h (4 Bft)
31.08.2014 00:26 14,3 C 13,3 C 97 % 1015,6 hPa 0,0 l/m 0 min 0 min 0,0 UV-I 0 W/m 14,2 km/h (3 Bft)
31.08.2014 00:28 14,3 C 13,3 C 97 % 1015,6 hPa 0,0 l/m 0 min 0 min 0,0 UV-I 0 W/m 7,1 km/h (2 Bft)
31.08.2014 00:30 14,3 C 13,3 C 97 % 1015,6 hPa 0,0 l/m 0 min 0 min 0,0 UV-I 0 W/m 14,2 km/h (3 Bft)
31.08.2014 00:32 14,3 C 13,3 C 97 % 1015,6 hPa 0,0 l/m 0 min 0 min 0,0 UV-I 0 W/m 14,2 km/h (3 Bft)
31.08.2014 00:34 14,3 C 13,3 C 97 % 1015,6 hPa 0,0 l/m 0 min 0 min 0,0 UV-I 0 W/m 10,7 km/h (2 Bft)
31.08.2014 00:36 14,4 C 13,3 C 97 % 1015,6 hPa 0,0 l/m 0 min 0 min 0,0 UV-I 0 W/m 0,0 km/h (0 Bft)
31.08.2014 00:38 14,4 C 13,3 C 97 % 1015,5 hPa 0,0 l/m 0 min 0 min 0,0 UV-I 0 W/m 0,0 km/h (0 Bft)
31.08.2014 00:40 14,4 C 13,3 C 97 % 1015,6 hPa 0,0 l/m 0 min 0 min 0,0 UV-I 0 W/m 0,0 km/h (0 Bft)
31.08.2014 00:42 14,4 C 13,3 C 97 % 1015,6 hPa 0,0 l/m 0 min 0 min 0,0 UV-I 0 W/m 10,7 km/h (2 Bft)
31.08.2014 00:44 14,4 C 13,3 C 97 % 1015,6 hPa 0,0 l/m 0 min 0 min 0,0 UV-I 0 W/m 0,0 km/h (0 Bft)
31.08.2014 00:46 14,4 C 13,3 C 97 % 1015,5 hPa 0,0 l/m 0 min 0 min 0,0 UV-I 0 W/m 0,0 km/h (0 Bft)
31.08.2014 00:48 14,4 C 13,3 C 97 % 1015,5 hPa 0,0 l/m 0 min 0 min 0,0 UV-I 0 W/m 0,0 km/h (0 Bft)
31.08.2014 00:50 14,4 C 13,3 C 97 % 1015,5 hPa 0,0 l/m 0 min 0 min 0,0 UV-I 0 W/m 7,1 km/h (2 Bft)
31.08.2014 00:52 14,4 C 13,3 C 97 % 1015,5 hPa 0,0 l/m 0 min 0 min 0,0 UV-I 0 W/m 10,7 km/h (2 Bft)
31.08.2014 00:54 14,4 C 13,3 C 97 % 1015,5 hPa 0,0 l/m 0 min 0 min 0,0 UV-I 0 W/m 10,7 km/h (2 Bft)
31.08.2014 00:56 14,4 C 13,3 C 97 % 1015,4 hPa 0,0 l/m 0 min 0 min 0,0 UV-I 0 W/m 0,0 km/h (0 Bft)
31.08.2014 00:58 14,4 C 13,3 C 97 % 1015,4 hPa 0,0 l/m 0 min 0 min 0,0 UV-I 0 W/m 14,2 km/h (3 Bft)
31.08.2014 01:00 14,4 C 13,3 C 97 % 1015,5 hPa 0,0 l/m 0 min 0 min 0,0 UV-I 0 W/m 14,2 km/h (3 Bft)
31.08.2014 01:02 14,4 C 13,3 C 97 % 1015,4 hPa 0,0 l/m 0 min 0 min 0,0 UV-I 0 W/m 7,1 km/h (2 Bft)
31.08.2014 01:04 14,4 C 13,3 C 97 % 1015,5 hPa 0,0 l/m 0 min 0 min 0,0 UV-I 0 W/m 17,7 km/h (3 Bft)
31.08.2014 01:06 14,4 C 13,3 C 97 % 1015,4 hPa 0,0 l/m 0 min 0 min 0,0 UV-I 0 W/m 10,7 km/h (2 Bft)
31.08.2014 01:08 14,4 C 13,3 C 97 % 1015,4 hPa 0,0 l/m 0 min 0 min 0,0 UV-I 0 W/m 10,7 km/h (2 Bft)
31.08.2014 01:10 14,4 C 13,3 C 97 % 1015,5 hPa 0,0 l/m 0 min 0 min 0,0 UV-I 0 W/m 3,5 km/h (1 Bft)
31.08.2014 01:12 14,4 C 13,3 C 97 % 1015,5 hPa 0,0 l/m 0 min 0 min 0,0 UV-I 0 W/m 0,0 km/h (0 Bft)
31.08.2014 01:14 14,4 C 13,3 C 97 % 1015,5 hPa 0,0 l/m 0 min 0 min 0,0 UV-I 0 W/m 14,2 km/h (3 Bft)
31.08.2014 01:16 14,4 C 13,3 C 97 % 1015,5 hPa 0,0 l/m 0 min 0 min 0,0 UV-I 0 W/m 3,5 km/h (1 Bft)
31.08.2014 01:18 14,4 C 13,3 C 97 % 1015,5 hPa 0,0 l/m 0 min 0 min 0,0 UV-I 0 W/m 14,2 km/h (3 Bft)
31.08.2014 01:20 14,4 C 13,3 C 97 % 1015,4 hPa 0,0 l/m 0 min 0 min 0,0 UV-I 0 W/m 10,7 km/h (2 Bft)
31.08.2014 01:22 14,4 C 13,3 C 97 % 1015,4 hPa 0,0 l/m 0 min 0 min 0,0 UV-I 0 W/m 10,7 km/h (2 Bft)
31.08.2014 01:24 14,4 C 13,3 C 97 % 1015,4 hPa 0,0 l/m 0 min 0 min 0,0 UV-I 0 W/m 14,2 km/h (3 Bft)
31.08.2014 01:26 14,4 C 12,8 C 97 % 1015,3 hPa 0,0 l/m 0 min 0 min 0,0 UV-I 0 W/m 10,7 km/h (2 Bft)
31.08.2014 01:28 14,4 C 12,8 C 97 % 1015,4 hPa 0,0 l/m 0 min 0 min 0,0 UV-I 0 W/m 10,7 km/h (2 Bft)
31.08.2014 01:30 14,4 C 12,8 C 97 % 1015,3 hPa 0,0 l/m 0 min 0 min 0,0 UV-I 0 W/m 14,2 km/h (3 Bft)
31.08.2014 01:32 14,4 C 12,8 C 97 % 1015,3 hPa 0,0 l/m 0 min 0 min 0,0 UV-I 0 W/m 14,2 km/h (3 Bft)
31.08.2014 01:34 14,3 C 12,8 C 97 % 1015,3 hPa 0,0 l/m 0 min 0 min 0,0 UV-I 0 W/m 17,7 km/h (3 Bft)
31.08.2014 01:36 14,3 C 12,8 C 97 % 1015,3 hPa 0,0 l/m 0 min 0 min 0,0 UV-I 0 W/m 17,7 km/h (3 Bft)
31.08.2014 01:38 14,3 C 12,8 C 97 % 1015,3 hPa 0,0 l/m 0 min 0 min 0,0 UV-I 0 W/m 14,2 km/h (3 Bft)
31.08.2014 01:40 14,3 C 12,8 C 97 % 1015,2 hPa 0,0 l/m 0 min 0 min 0,0 UV-I 0 W/m 10,7 km/h (2 Bft)
31.08.2014 01:42 14,3 C 12,8 C 97 % 1015,2 hPa 0,0 l/m 0 min 0 min 0,0 UV-I 0 W/m 14,2 km/h (3 Bft)
31.08.2014 01:44 14,3 C 12,8 C 97 % 1015,2 hPa 0,0 l/m 0 min 0 min 0,0 UV-I 0 W/m 14,2 km/h (3 Bft)
31.08.2014 01:46 14,2 C 12,8 C 97 % 1015,1 hPa 0,0 l/m 0 min 0 min 0,0 UV-I 0 W/m 14,2 km/h (3 Bft)
31.08.2014 01:48 14,2 C 12,8 C 97 % 1015,2 hPa 0,0 l/m 0 min 0 min 0,0 UV-I 0 W/m 14,2 km/h (3 Bft)
31.08.2014 01:50 14,2 C 12,8 C 97 % 1015,2 hPa 0,0 l/m 0 min 0 min 0,0 UV-I 0 W/m 10,7 km/h (2 Bft)
31.08.2014 01:52 14,2 C 12,8 C 97 % 1015,2 hPa 0,0 l/m 0 min 0 min 0,0 UV-I 0 W/m 21,3 km/h (4 Bft)
31.08.2014 01:54 14,2 C 12,8 C 97 % 1015,2 hPa 0,0 l/m 0 min 0 min 0,0 UV-I 0 W/m 14,2 km/h (3 Bft)
31.08.2014 01:56 14,2 C 12,8 C 97 % 1015,2 hPa 0,0 l/m 0 min 0 min 0,0 UV-I 0 W/m 14,2 km/h (3 Bft)
31.08.2014 01:58 14,2 C 12,8 C 97 % 1015,2 hPa 0,0 l/m 0 min 0 min 0,0 UV-I 0 W/m 14,2 km/h (3 Bft)
31.08.2014 02:00 14,2 C 12,8 C 97 % 1015,2 hPa 0,0 l/m 0 min 0 min 0,0 UV-I 0 W/m 17,7 km/h (3 Bft)
31.08.2014 02:02 14,2 C 12,8 C 97 % 1015,1 hPa 0,0 l/m 0 min 0 min 0,0 UV-I 0 W/m 14,2 km/h (3 Bft)
31.08.2014 02:04 14,2 C 12,8 C 97 % 1015,1 hPa 0,0 l/m 0 min 0 min 0,0 UV-I 0 W/m 10,7 km/h (2 Bft)
31.08.2014 02:06 14,2 C 12,8 C 97 % 1015,1 hPa 0,0 l/m 0 min 0 min 0,0 UV-I 0 W/m 14,2 km/h (3 Bft)
31.08.2014 02:08 14,2 C 12,8 C 97 % 1015,0 hPa 0,0 l/m 0 min 0 min 0,0 UV-I 0 W/m 14,2 km/h (3 Bft)
31.08.2014 02:10 14,2 C 12,8 C 97 % 1015,0 hPa 0,0 l/m 0 min 0 min 0,0 UV-I 0 W/m 14,2 km/h (3 Bft)
31.08.2014 02:12 14,2 C 12,8 C 97 % 1015,0 hPa 0,0 l/m 0 min 0 min 0,0 UV-I 0 W/m 17,7 km/h (3 Bft)
31.08.2014 02:14 14,2 C 12,8 C 97 % 1015,0 hPa 0,0 l/m 0 min 0 min 0,0 UV-I 0 W/m 10,7 km/h (2 Bft)
31.08.2014 02:16 14,2 C 12,8 C 97 % 1015,0 hPa 0,0 l/m 0 min 0 min 0,0 UV-I 0 W/m 14,2 km/h (3 Bft)
31.08.2014 02:18 14,2 C 12,8 C 97 % 1015,1 hPa 0,0 l/m 0 min 0 min 0,0 UV-I 0 W/m 14,2 km/h (3 Bft)
31.08.2014 02:20 14,2 C 12,8 C 97 % 1015,0 hPa 0,0 l/m 0 min 0 min 0,0 UV-I 0 W/m 14,2 km/h (3 Bft)
31.08.2014 02:22 14,2 C 12,8 C 97 % 1015,0 hPa 0,0 l/m 0 min 0 min 0,0 UV-I 0 W/m 14,2 km/h (3 Bft)
31.08.2014 02:24 14,2 C 12,8 C 97 % 1015,0 hPa 0,0 l/m 0 min 0 min 0,0 UV-I 0 W/m 14,2 km/h (3 Bft)
31.08.2014 02:26 14,2 C 12,8 C 97 % 1015,0 hPa 0,0 l/m 0 min 0 min 0,0 UV-I 0 W/m 10,7 km/h (2 Bft)
31.08.2014 02:28 14,2 C 12,8 C 97 % 1014,9 hPa 0,0 l/m 0 min 0 min 0,0 UV-I 0 W/m 14,2 km/h (3 Bft)
31.08.2014 02:30 14,1 C 12,8 C 97 % 1014,8 hPa 0,0 l/m 0 min 0 min 0,0 UV-I 0 W/m 10,7 km/h (2 Bft)
31.08.2014 02:32 14,1 C 12,8 C 97 % 1014,8 hPa 0,0 l/m 0 min 0 min 0,0 UV-I 0 W/m 7,1 km/h (2 Bft)
31.08.2014 02:34 14,1 C 12,8 C 97 % 1014,8 hPa 0,0 l/m 0 min 0 min 0,0 UV-I 0 W/m 14,2 km/h (3 Bft)
31.08.2014 02:36 14,1 C 12,8 C 97 % 1014,8 hPa 0,0 l/m 0 min 0 min 0,0 UV-I 0 W/m 17,7 km/h (3 Bft)
31.08.2014 02:38 14,1 C 12,8 C 97 % 1014,7 hPa 0,0 l/m 0 min 0 min 0,0 UV-I 0 W/m 17,7 km/h (3 Bft)
31.08.2014 02:40 14,0 C 12,8 C 97 % 1014,7 hPa 0,0 l/m 0 min 0 min 0,0 UV-I 0 W/m 21,3 km/h (4 Bft)
31.08.2014 02:42 14,0 C 12,8 C 97 % 1014,6 hPa 0,0 l/m 0 min 0 min 0,0 UV-I 0 W/m 14,2 km/h (3 Bft)
31.08.2014 02:44 14,0 C 12,8 C 97 % 1014,6 hPa 0,0 l/m 0 min 0 min 0,0 UV-I 0 W/m 14,2 km/h (3 Bft)
31.08.2014 02:46 14,0 C 12,8 C 97 % 1014,6 hPa 0,0 l/m 0 min 0 min 0,0 UV-I 0 W/m 14,2 km/h (3 Bft)
31.08.2014 02:48 13,9 C 12,8 C 97 % 1014,6 hPa 0,0 l/m 0 min 0 min 0,0 UV-I 0 W/m 17,7 km/h (3 Bft)
31.08.2014 02:50 13,9 C 12,8 C 97 % 1014,6 hPa 0,0 l/m 0 min 0 min 0,0 UV-I 0 W/m 14,2 km/h (3 Bft)
31.08.2014 02:52 13,9 C 12,8 C 97 % 1014,7 hPa 0,0 l/m 0 min 0 min 0,0 UV-I 0 W/m 14,2 km/h (3 Bft)
31.08.2014 02:54 13,9 C 12,8 C 97 % 1014,6 hPa 0,0 l/m 0 min 0 min 0,0 UV-I 0 W/m 17,7 km/h (3 Bft)
31.08.2014 02:56 13,9 C 12,8 C 97 % 1014,6 hPa 0,0 l/m 0 min 0 min 0,0 UV-I 0 W/m 14,2 km/h (3 Bft)
31.08.2014 02:58 13,9 C 12,2 C 97 % 1014,6 hPa 0,0 l/m 0 min 0 min 0,0 UV-I 0 W/m 10,7 km/h (2 Bft)
31.08.2014 03:00 13,9 C 12,2 C 97 % 1014,6 hPa 0,0 l/m 0 min 0 min 0,0 UV-I 0 W/m 10,7 km/h (2 Bft)
31.08.2014 03:02 13,8 C 12,2 C 97 % 1014,6 hPa 0,0 l/m 0 min 0 min 0,0 UV-I 0 W/m 10,7 km/h (2 Bft)
31.08.2014 03:04 13,8 C 12,2 C 97 % 1014,6 hPa 0,0 l/m 0 min 0 min 0,0 UV-I 0 W/m 14,2 km/h (3 Bft)
31.08.2014 03:06 13,8 C 12,2 C 97 % 1014,7 hPa 0,0 l/m 0 min 0 min 0,0 UV-I 0 W/m 14,2 km/h (3 Bft)
31.08.2014 03:08 13,8 C 12,2 C 97 % 1014,6 hPa 0,0 l/m 0 min 0 min 0,0 UV-I 0 W/m 14,2 km/h (3 Bft)
31.08.2014 03:10 13,8 C 12,2 C 97 % 1014,7 hPa 0,0 l/m 0 min 0 min 0,0 UV-I 0 W/m 0,0 km/h (0 Bft)
31.08.2014 03:12 13,8 C 12,2 C 97 % 1014,6 hPa 0,0 l/m 0 min 0 min 0,0 UV-I 0 W/m 7,1 km/h (2 Bft)
31.08.2014 03:14 13,8 C 12,2 C 97 % 1014,6 hPa 0,0 l/m 0 min 0 min 0,0 UV-I 0 W/m 7,1 km/h (2 Bft)
31.08.2014 03:16 13,7 C 12,2 C 97 % 1014,6 hPa 0,0 l/m 0 min 0 min 0,0 UV-I 0 W/m 7,1 km/h (2 Bft)
31.08.2014 03:18 13,7 C 12,2 C 97 % 1014,6 hPa 0,0 l/m 0 min 0 min 0,0 UV-I 0 W/m 7,1 km/h (2 Bft)
31.08.2014 03:20 13,7 C 12,2 C 97 % 1014,5 hPa 0,0 l/m 0 min 0 min 0,0 UV-I 0 W/m 7,1 km/h (2 Bft)
31.08.2014 03:22 13,7 C 12,2 C 97 % 1014,5 hPa 0,0 l/m 0 min 0 min 0,0 UV-I 0 W/m 14,2 km/h (3 Bft)
31.08.2014 03:24 13,7 C 12,2 C 97 % 1014,6 hPa 0,0 l/m 0 min 0 min 0,0 UV-I 0 W/m 3,5 km/h (1 Bft)
31.08.2014 03:26 13,7 C 12,2 C 97 % 1014,5 hPa 0,0 l/m 0 min 0 min 0,0 UV-I 0 W/m 10,7 km/h (2 Bft)
31.08.2014 03:28 13,7 C 12,2 C 97 % 1014,5 hPa 0,0 l/m 0 min 0 min 0,0 UV-I 0 W/m 3,5 km/h (1 Bft)
31.08.2014 03:30 13,6 C 12,2 C 97 % 1014,4 hPa 0,0 l/m 0 min 0 min 0,0 UV-I 0 W/m 3,5 km/h (1 Bft)
31.08.2014 03:32 13,6 C 12,2 C 97 % 1014,4 hPa 0,0 l/m 0 min 0 min 0,0 UV-I 0 W/m 10,7 km/h (2 Bft)
31.08.2014 03:34 13,6 C 12,2 C 97 % 1014,4 hPa 0,0 l/m 0 min 0 min 0,0 UV-I 0 W/m 14,2 km/h (3 Bft)
31.08.2014 03:36 13,6 C 12,2 C 97 % 1014,4 hPa 0,0 l/m 0 min 0 min 0,0 UV-I 0 W/m 17,7 km/h (3 Bft)
31.08.2014 03:38 13,6 C 12,2 C 97 % 1014,3 hPa 0,0 l/m 0 min 0 min 0,0 UV-I 0 W/m 14,2 km/h (3 Bft)
31.08.2014 03:40 13,6 C 12,2 C 97 % 1014,3 hPa 0,0 l/m 0 min 0 min 0,0 UV-I 0 W/m 14,2 km/h (3 Bft)
31.08.2014 03:42 13,6 C 12,2 C 97 % 1014,4 hPa 0,0 l/m 0 min 0 min 0,0 UV-I 0 W/m 14,2 km/h (3 Bft)
31.08.2014 03:44 13,6 C 12,2 C 97 % 1014,3 hPa 0,0 l/m 0 min 0 min 0,0 UV-I 0 W/m 10,7 km/h (2 Bft)
31.08.2014 03:46 13,6 C 12,2 C 97 % 1014,3 hPa 0,0 l/m 0 min 0 min 0,0 UV-I 0 W/m 14,2 km/h (3 Bft)
31.08.2014 03:48 13,6 C 12,2 C 97 % 1014,3 hPa 0,0 l/m 0 min 0 min 0,0 UV-I 0 W/m 17,7 km/h (3 Bft)
31.08.2014 03:50 13,6 C 12,2 C 97 % 1014,3 hPa 0,0 l/m 0 min 0 min 0,0 UV-I 0 W/m 14,2 km/h (3 Bft)
31.08.2014 03:52 13,6 C 12,2 C 97 % 1014,3 hPa 0,0 l/m 0 min 0 min 0,0 UV-I 0 W/m 14,2 km/h (3 Bft)
31.08.2014 03:54 13,6 C 12,2 C 97 % 1014,3 hPa 0,0 l/m 0 min 0 min 0,0 UV-I 0 W/m 10,7 km/h (2 Bft)
31.08.2014 03:56 13,6 C 12,2 C 97 % 1014,3 hPa 0,0 l/m 0 min 0 min 0,0 UV-I 0 W/m 17,7 km/h (3 Bft)
31.08.2014 03:58 13,6 C 12,2 C 97 % 1014,3 hPa 0,0 l/m 0 min 0 min 0,0 UV-I 0 W/m 10,7 km/h (2 Bft)
31.08.2014 04:00 13,6 C 12,2 C 97 % 1014,3 hPa 0,0 l/m 0 min 0 min 0,0 UV-I 0 W/m 14,2 km/h (3 Bft)
31.08.2014 04:02 13,6 C 12,2 C 97 % 1014,2 hPa 0,0 l/m 0 min 0 min 0,0 UV-I 0 W/m 17,7 km/h (3 Bft)
31.08.2014 04:04 13,6 C 12,2 C 97 % 1014,3 hPa 0,0 l/m 0 min 0 min 0,0 UV-I 0 W/m 10,7 km/h (2 Bft)
31.08.2014 04:06 13,6 C 12,2 C 97 % 1014,3 hPa 0,0 l/m 0 min 0 min 0,0 UV-I 0 W/m 17,7 km/h (3 Bft)
31.08.2014 04:08 13,5 C 12,2 C 97 % 1014,3 hPa 0,0 l/m 0 min 0 min 0,0 UV-I 0 W/m 3,5 km/h (1 Bft)
31.08.2014 04:10 13,5 C 12,2 C 97 % 1014,3 hPa 0,0 l/m 0 min 0 min 0,0 UV-I 0 W/m 10,7 km/h (2 Bft)
31.08.2014 04:12 13,5 C 12,2 C 97 % 1014,3 hPa 0,0 l/m 0 min 0 min 0,0 UV-I 0 W/m 14,2 km/h (3 Bft)
31.08.2014 04:14 13,5 C 12,2 C 97 % 1014,2 hPa 0,0 l/m 0 min 0 min 0,0 UV-I 0 W/m 17,7 km/h (3 Bft)
31.08.2014 04:16 13,5 C 12,2 C 98 % 1014,2 hPa 0,0 l/m 0 min 0 min 0,0 UV-I 0 W/m 17,7 km/h (3 Bft)
31.08.2014 04:18 13,5 C 12,2 C 98 % 1014,2 hPa 0,0 l/m 0 min 0 min 0,0 UV-I 0 W/m 17,7 km/h (3 Bft)
31.08.2014 04:20 13,5 C 12,2 C 98 % 1014,2 hPa 0,0 l/m 0 min 0 min 0,0 UV-I 0 W/m 10,7 km/h (2 Bft)
31.08.2014 04:22 13,5 C 12,2 C 98 % 1014,2 hPa 0,0 l/m 0 min 0 min 0,0 UV-I 0 W/m 3,5 km/h (1 Bft)
31.08.2014 04:24 13,4 C 12,2 C 98 % 1014,1 hPa 0,0 l/m 0 min 0 min 0,0 UV-I 0 W/m 17,7 km/h (3 Bft)
31.08.2014 04:26 13,4 C 12,2 C 98 % 1014,2 hPa 0,0 l/m 0 min 0 min 0,0 UV-I 0 W/m 10,7 km/h (2 Bft)
31.08.2014 04:28 13,4 C 12,2 C 98 % 1014,2 hPa 0,0 l/m 0 min 0 min 0,0 UV-I 0 W/m 0,0 km/h (0 Bft)
31.08.2014 04:30 13,4 C 12,2 C 98 % 1014,2 hPa 0,0 l/m 0 min 0 min 0,0 UV-I 0 W/m 10,7 km/h (2 Bft)
31.08.2014 04:32 13,4 C 12,2 C 98 % 1014,2 hPa 0,0 l/m 0 min 0 min 0,0 UV-I 0 W/m 10,7 km/h (2 Bft)
31.08.2014 04:34 13,4 C 12,2 C 98 % 1014,1 hPa 0,0 l/m 0 min 0 min 0,0 UV-I 0 W/m 0,0 km/h (0 Bft)
31.08.2014 04:36 13,4 C 12,2 C 98 % 1014,1 hPa 0,0 l/m 0 min 0 min 0,0 UV-I 0 W/m 10,7 km/h (2 Bft)
31.08.2014 04:38 13,4 C 12,2 C 98 % 1014,0 hPa 0,0 l/m 0 min 0 min 0,0 UV-I 0 W/m 10,7 km/h (2 Bft)
31.08.2014 04:40 13,4 C 12,2 C 98 % 1014,0 hPa 0,0 l/m 0 min 0 min 0,0 UV-I 0 W/m 7,1 km/h (2 Bft)
31.08.2014 04:42 13,4 C 12,2 C 98 % 1014,0 hPa 0,0 l/m 0 min 0 min 0,0 UV-I 0 W/m 0,0 km/h (0 Bft)
31.08.2014 04:44 13,3 C 12,2 C 98 % 1014,0 hPa 0,0 l/m 0 min 0 min 0,0 UV-I 0 W/m 0,0 km/h (0 Bft)
31.08.2014 04:46 13,3 C 11,7 C 98 % 1014,0 hPa 0,0 l/m 0 min 0 min 0,0 UV-I 0 W/m 0,0 km/h (0 Bft)
31.08.2014 04:48 13,3 C 11,7 C 98 % 1014,0 hPa 0,0 l/m 0 min 0 min 0,0 UV-I 0 W/m 0,0 km/h (0 Bft)
31.08.2014 04:50 13,3 C 11,7 C 98 % 1014,0 hPa 0,0 l/m 0 min 0 min 0,0 UV-I 0 W/m 0,0 km/h (0 Bft)
31.08.2014 04:52 13,3 C 11,7 C 98 % 1014,0 hPa 0,0 l/m 0 min 0 min 0,0 UV-I 0 W/m 3,5 km/h (1 Bft)
31.08.2014 04:54 13,3 C 11,7 C 98 % 1014,0 hPa 0,0 l/m 0 min 0 min 0,0 UV-I 0 W/m 0,0 km/h (0 Bft)
31.08.2014 04:56 13,3 C 11,7 C 98 % 1014,0 hPa 0,0 l/m 0 min 0 min 0,0 UV-I 0 W/m 0,0 km/h (0 Bft)
31.08.2014 04:58 13,2 C 11,7 C 98 % 1014,0 hPa 0,0 l/m 0 min 0 min 0,0 UV-I 0 W/m 10,7 km/h (2 Bft)
31.08.2014 05:00 13,2 C 11,7 C 98 % 1014,0 hPa 0,0 l/m 0 min 0 min 0,0 UV-I 0 W/m 10,7 km/h (2 Bft)
31.08.2014 05:02 13,2 C 12,2 C 98 % 1014,0 hPa 0,0 l/m 0 min 0 min 0,0 UV-I 0 W/m 10,7 km/h (2 Bft)
31.08.2014 05:04 13,2 C 12,2 C 98 % 1014,0 hPa 0,0 l/m 0 min 0 min 0,0 UV-I 0 W/m 17,7 km/h (3 Bft)
31.08.2014 05:06 13,2 C 12,2 C 98 % 1014,0 hPa 0,0 l/m 0 min 0 min 0,0 UV-I 0 W/m 10,7 km/h (2 Bft)
31.08.2014 05:08 13,2 C 12,2 C 98 % 1014,0 hPa 0,0 l/m 0 min 0 min 0,0 UV-I 0 W/m 14,2 km/h (3 Bft)
31.08.2014 05:10 13,2 C 12,2 C 98 % 1014,0 hPa 0,0 l/m 0 min 0 min 0,0 UV-I 0 W/m 0,0 km/h (0 Bft)
31.08.2014 05:12 13,2 C 12,2 C 98 % 1014,0 hPa 0,0 l/m 0 min 0 min 0,0 UV-I 0 W/m 3,5 km/h (1 Bft)
31.08.2014 05:14 13,2 C 12,2 C 98 % 1013,9 hPa 0,0 l/m 0 min 0 min 0,0 UV-I 0 W/m 10,7 km/h (2 Bft)
31.08.2014 05:16 13,2 C 12,2 C 98 % 1014,0 hPa 0,0 l/m 0 min 0 min 0,0 UV-I 0 W/m 0,0 km/h (0 Bft)
31.08.2014 05:18 13,2 C 12,2 C 98 % 1014,0 hPa 0,0 l/m 0 min 0 min 0,0 UV-I 0 W/m 3,5 km/h (1 Bft)
31.08.2014 05:20 13,2 C 12,2 C 98 % 1014,0 hPa 0,0 l/m 0 min 0 min 0,0 UV-I 0 W/m 10,7 km/h (2 Bft)
31.08.2014 05:22 13,2 C 12,2 C 98 % 1014,0 hPa 0,0 l/m 0 min 0 min 0,0 UV-I 0 W/m 7,1 km/h (2 Bft)
31.08.2014 05:24 13,2 C 12,2 C 98 % 1014,0 hPa 0,0 l/m 0 min 0 min 0,0 UV-I 0 W/m 0,0 km/h (0 Bft)
31.08.2014 05:26 13,2 C 12,2 C 98 % 1014,0 hPa 0,0 l/m 0 min 0 min 0,0 UV-I 0 W/m 3,5 km/h (1 Bft)
31.08.2014 05:28 13,2 C 12,2 C 98 % 1014,0 hPa 0,0 l/m 0 min 0 min 0,0 UV-I 0 W/m 17,7 km/h (3 Bft)
31.08.2014 05:30 13,2 C 12,2 C 98 % 1014,0 hPa 0,0 l/m 0 min 0 min 0,0 UV-I 0 W/m 14,2 km/h (3 Bft)
31.08.2014 05:32 13,2 C 12,2 C 98 % 1014,0 hPa 0,0 l/m 0 min 0 min 0,0 UV-I 0 W/m 14,2 km/h (3 Bft)
31.08.2014 05:34 13,2 C 12,2 C 98 % 1014,0 hPa 0,0 l/m 0 min 0 min 0,0 UV-I 0 W/m 0,0 km/h (0 Bft)
31.08.2014 05:36 13,2 C 12,2 C 98 % 1014,0 hPa 0,0 l/m 0 min 0 min 0,0 UV-I 0 W/m 0,0 km/h (0 Bft)
31.08.2014 05:38 13,2 C 12,2 C 98 % 1014,0 hPa 0,0 l/m 0 min 0 min 0,0 UV-I 0 W/m 0,0 km/h (0 Bft)
31.08.2014 05:40 13,2 C 12,2 C 98 % 1014,0 hPa 0,0 l/m 0 min 0 min 0,0 UV-I 0 W/m 0,0 km/h (0 Bft)
31.08.2014 05:42 13,2 C 12,2 C 98 % 1014,0 hPa 0,0 l/m 0 min 0 min 0,0 UV-I 0 W/m 0,0 km/h (0 Bft)
31.08.2014 05:44 13,2 C 12,2 C 98 % 1014,0 hPa 0,0 l/m 0 min 0 min 0,0 UV-I 0 W/m 0,0 km/h (0 Bft)
31.08.2014 05:46 13,2 C 12,2 C 98 % 1013,9 hPa 0,0 l/m 0 min 0 min 0,0 UV-I 0 W/m 0,0 km/h (0 Bft)
31.08.2014 05:48 13,2 C 12,2 C 98 % 1013,9 hPa 0,0 l/m 0 min 0 min 0,0 UV-I 0 W/m 0,0 km/h (0 Bft)
31.08.2014 05:50 13,2 C 12,2 C 98 % 1013,9 hPa 0,0 l/m 0 min 0 min 0,0 UV-I 0 W/m 0,0 km/h (0 Bft)
31.08.2014 05:52 13,2 C 12,2 C 98 % 1014,0 hPa 0,0 l/m 0 min 0 min 0,0 UV-I 0 W/m 10,7 km/h (2 Bft)
31.08.2014 05:54 13,2 C 12,2 C 98 % 1014,0 hPa 0,0 l/m 0 min 0 min 0,0 UV-I 0 W/m 10,7 km/h (2 Bft)
31.08.2014 05:56 13,2 C 12,2 C 98 % 1014,0 hPa 0,0 l/m 0 min 0 min 0,0 UV-I 0 W/m 0,0 km/h (0 Bft)
31.08.2014 05:58 13,2 C 12,2 C 98 % 1014,0 hPa 0,0 l/m 0 min 0 min 0,0 UV-I 0 W/m 3,5 km/h (1 Bft)
31.08.2014 06:00 13,2 C 12,2 C 98 % 1013,9 hPa 0,0 l/m 0 min 0 min 0,0 UV-I 0 W/m 0,0 km/h (0 Bft)
31.08.2014 06:02 13,2 C 12,2 C 98 % 1014,0 hPa 0,0 l/m 0 min 0 min 0,0 UV-I 0 W/m 0,0 km/h (0 Bft)
31.08.2014 06:06 13,2 C 12,2 C 98 % 1013,9 hPa 0,0 l/m 0 min 0 min 0,0 UV-I 0 W/m 3,5 km/h (1 Bft)
31.08.2014 06:08 13,2 C 12,2 C 98 % 1014,0 hPa 0,0 l/m 0 min 0 min 0,0 UV-I 0 W/m 0,0 km/h (0 Bft)
31.08.2014 06:10 13,3 C 12,2 C 98 % 1014,0 hPa 0,0 l/m 0 min 0 min 0,0 UV-I 0 W/m 7,1 km/h (2 Bft)
31.08.2014 06:12 13,2 C 12,2 C 98 % 1014,0 hPa 0,0 l/m 0 min 0 min 0,0 UV-I 0 W/m 10,7 km/h (2 Bft)
31.08.2014 06:14 13,2 C 12,2 C 98 % 1014,0 hPa 0,0 l/m 0 min 0 min 0,0 UV-I 0 W/m 10,7 km/h (2 Bft)
31.08.2014 06:16 13,2 C 12,2 C 98 % 1013,9 hPa 0,0 l/m 0 min 0 min 0,0 UV-I 0 W/m 7,1 km/h (2 Bft)
31.08.2014 06:18 13,2 C 12,2 C 98 % 1013,9 hPa 0,0 l/m 0 min 0 min 0,0 UV-I 0 W/m 0,0 km/h (0 Bft)
31.08.2014 06:20 13,2 C 12,2 C 98 % 1013,9 hPa 0,0 l/m 0 min 0 min 0,0 UV-I 0 W/m 10,7 km/h (2 Bft)
31.08.2014 06:22 13,2 C 12,2 C 98 % 1013,9 hPa 0,0 l/m 0 min 0 min 0,0 UV-I 0 W/m 10,7 km/h (2 Bft)
31.08.2014 06:24 13,2 C 12,2 C 98 % 1013,9 hPa 0,0 l/m 0 min 0 min 0,0 UV-I 0 W/m 3,5 km/h (1 Bft)
31.08.2014 06:26 13,2 C 12,2 C 98 % 1013,9 hPa 0,0 l/m 0 min 0 min 0,0 UV-I 0 W/m 14,2 km/h (3 Bft)
31.08.2014 06:28 13,2 C 12,2 C 98 % 1014,0 hPa 0,0 l/m 0 min 0 min 0,0 UV-I 0 W/m 17,7 km/h (3 Bft)
31.08.2014 06:30 13,2 C 12,2 C 98 % 1014,0 hPa 0,0 l/m 0 min 0 min 0,0 UV-I 0 W/m 14,2 km/h (3 Bft)
31.08.2014 06:32 13,2 C 12,2 C 98 % 1014,0 hPa 0,0 l/m 0 min 0 min 0,0 UV-I 0 W/m 3,5 km/h (1 Bft)
31.08.2014 06:34 13,2 C 12,2 C 98 % 1014,0 hPa 0,0 l/m 0 min 0 min 0,0 UV-I 0 W/m 3,5 km/h (1 Bft)
31.08.2014 06:36 13,1 C 12,2 C 98 % 1014,0 hPa 0,0 l/m 0 min 0 min 0,0 UV-I 0 W/m 17,7 km/h (3 Bft)
31.08.2014 06:38 13,1 C 12,2 C 98 % 1014,0 hPa 0,0 l/m 0 min 0 min 0,0 UV-I 0 W/m 14,2 km/h (3 Bft)
31.08.2014 06:40 13,1 C 12,2 C 98 % 1014,0 hPa 0,0 l/m 0 min 0 min 0,0 UV-I 0 W/m 10,7 km/h (2 Bft)
31.08.2014 06:42 13,1 C 12,2 C 98 % 1014,0 hPa 0,0 l/m 0 min 0 min 0,0 UV-I 0 W/m 14,2 km/h (3 Bft)
31.08.2014 06:44 13,1 C 12,2 C 98 % 1014,0 hPa 0,0 l/m 0 min 0 min 0,0 UV-I 0 W/m 10,7 km/h (2 Bft)
31.08.2014 06:46 13,1 C 12,2 C 98 % 1014,0 hPa 0,0 l/m 0 min 0 min 0,0 UV-I 0 W/m 3,5 km/h (1 Bft)
31.08.2014 06:48 13,1 C 12,2 C 98 % 1014,1 hPa 0,0 l/m 0 min 0 min 0,0 UV-I 0 W/m 0,0 km/h (0 Bft)
31.08.2014 06:50 13,1 C 12,2 C 98 % 1014,0 hPa 0,0 l/m 0 min 0 min 0,0 UV-I 0 W/m 7,1 km/h (2 Bft)
31.08.2014 06:52 13,1 C 12,2 C 98 % 1014,0 hPa 0,0 l/m 0 min 0 min 0,0 UV-I 6 W/m 14,2 km/h (3 Bft)
31.08.2014 06:54 13,1 C 12,2 C 98 % 1014,0 hPa 0,0 l/m 0 min 0 min 0,0 UV-I 8 W/m 17,7 km/h (3 Bft)
31.08.2014 06:56 13,1 C 12,2 C 98 % 1014,0 hPa 0,0 l/m 0 min 0 min 0,0 UV-I 9 W/m 17,7 km/h (3 Bft)
31.08.2014 06:58 13,1 C 12,2 C 98 % 1014,0 hPa 0,0 l/m 0 min 0 min 0,0 UV-I 11 W/m 10,7 km/h (2 Bft)
31.08.2014 07:00 13,1 C 12,2 C 98 % 1014,0 hPa 0,0 l/m 0 min 0 min 0,0 UV-I 11 W/m 17,7 km/h (3 Bft)
31.08.2014 07:02 13,1 C 12,2 C 98 % 1014,0 hPa 0,0 l/m 0 min 0 min 0,0 UV-I 13 W/m 14,2 km/h (3 Bft)
31.08.2014 07:04 13,1 C 12,2 C 98 % 1014,0 hPa 0,0 l/m 0 min 0 min 0,0 UV-I 15 W/m 14,2 km/h (3 Bft)
31.08.2014 07:06 13,1 C 12,2 C 98 % 1014,0 hPa 0,0 l/m 0 min 0 min 0,0 UV-I 17 W/m 10,7 km/h (2 Bft)
31.08.2014 07:08 13,1 C 12,2 C 98 % 1014,0 hPa 0,0 l/m 0 min 0 min 0,0 UV-I 18 W/m 17,7 km/h (3 Bft)
31.08.2014 07:10 13,1 C 12,2 C 98 % 1014,0 hPa 0,0 l/m 0 min 0 min 0,0 UV-I 18 W/m 7,1 km/h (2 Bft)
31.08.2014 07:12 13,2 C 12,2 C 98 % 1014,0 hPa 0,0 l/m 0 min 0 min 0,0 UV-I 18 W/m 10,7 km/h (2 Bft)
31.08.2014 07:14 13,2 C 12,2 C 98 % 1014,0 hPa 0,0 l/m 0 min 0 min 0,0 UV-I 19 W/m 14,2 km/h (3 Bft)
31.08.2014 07:16 13,2 C 12,2 C 98 % 1014,0 hPa 0,0 l/m 0 min 0 min 0,0 UV-I 20 W/m 10,7 km/h (2 Bft)
31.08.2014 07:18 13,2 C 12,2 C 98 % 1014,0 hPa 0,0 l/m 0 min 0 min 0,0 UV-I 21 W/m 7,1 km/h (2 Bft)
31.08.2014 07:20 13,2 C 12,2 C 98 % 1014,0 hPa 0,0 l/m 0 min 0 min 0,0 UV-I 23 W/m 14,2 km/h (3 Bft)
31.08.2014 07:22 13,2 C 12,2 C 98 % 1013,9 hPa 0,0 l/m 0 min 0 min 0,0 UV-I 28 W/m 14,2 km/h (3 Bft)
31.08.2014 07:24 13,2 C 12,2 C 98 % 1014,0 hPa 0,0 l/m 0 min 0 min 0,0 UV-I 31 W/m 10,7 km/h (2 Bft)
31.08.2014 07:26 13,2 C 12,8 C 98 % 1014,0 hPa 0,0 l/m 0 min 0 min 0,0 UV-I 41 W/m 10,7 km/h (2 Bft)
31.08.2014 07:28 13,2 C 12,8 C 98 % 1013,9 hPa 0,0 l/m 2 min 0 min 0,0 UV-I 54 W/m 14,2 km/h (3 Bft)
31.08.2014 07:30 13,3 C 12,8 C 98 % 1013,9 hPa 0,0 l/m 2 min 0 min 0,0 UV-I 63 W/m 14,2 km/h (3 Bft)
31.08.2014 07:32 13,3 C 12,8 C 98 % 1013,9 hPa 0,0 l/m 2 min 0 min 0,0 UV-I 71 W/m 17,7 km/h (3 Bft)
31.08.2014 07:34 13,3 C 12,8 C 98 % 1013,9 hPa 0,0 l/m 2 min 0 min 0,0 UV-I 78 W/m 14,2 km/h (3 Bft)
31.08.2014 07:36 13,4 C 12,8 C 98 % 1014,0 hPa 0,0 l/m 2 min 0 min 0,0 UV-I 68 W/m 10,7 km/h (2 Bft)
31.08.2014 07:38 13,4 C 12,8 C 98 % 1013,9 hPa 0,0 l/m 0 min 0 min 0,0 UV-I 52 W/m 17,7 km/h (3 Bft)
31.08.2014 07:40 13,4 C 12,8 C 98 % 1013,9 hPa 0,0 l/m 0 min 0 min 0,0 UV-I 46 W/m 14,2 km/h (3 Bft)
31.08.2014 07:42 13,4 C 12,8 C 98 % 1013,9 hPa 0,0 l/m 0 min 0 min 0,0 UV-I 34 W/m 17,7 km/h (3 Bft)
31.08.2014 07:44 13,5 C 12,8 C 98 % 1013,9 hPa 0,0 l/m 0 min 0 min 0,0 UV-I 27 W/m 14,2 km/h (3 Bft)
31.08.2014 07:46 13,5 C 12,8 C 98 % 1014,0 hPa 0,0 l/m 0 min 0 min 0,0 UV-I 23 W/m 17,7 km/h (3 Bft)
31.08.2014 07:48 13,6 C 12,8 C 98 % 1013,9 hPa 0,0 l/m 0 min 0 min 0,0 UV-I 23 W/m 21,3 km/h (4 Bft)
31.08.2014 07:50 13,6 C 12,8 C 98 % 1013,9 hPa 0,0 l/m 0 min 0 min 0,0 UV-I 23 W/m 10,7 km/h (2 Bft)
31.08.2014 07:52 13,6 C 12,8 C 98 % 1013,9 hPa 0,0 l/m 0 min 0 min 0,0 UV-I 25 W/m 17,7 km/h (3 Bft)
31.08.2014 07:54 13,6 C 12,8 C 98 % 1014,0 hPa 0,0 l/m 0 min 0 min 0,0 UV-I 22 W/m 14,2 km/h (3 Bft)
31.08.2014 07:56 13,6 C 12,8 C 98 % 1013,9 hPa 0,0 l/m 0 min 0 min 0,0 UV-I 26 W/m 10,7 km/h (2 Bft)
31.08.2014 07:58 13,6 C 12,8 C 98 % 1014,0 hPa 0,0 l/m 0 min 0 min 0,0 UV-I 26 W/m 17,7 km/h (3 Bft)
31.08.2014 08:00 13,7 C 12,8 C 98 % 1014,0 hPa 0,0 l/m 0 min 0 min 0,0 UV-I 33 W/m 21,3 km/h (4 Bft)
31.08.2014 08:02 13,7 C 12,8 C 98 % 1014,0 hPa 0,0 l/m 0 min 0 min 0,0 UV-I 37 W/m 17,7 km/h (3 Bft)
31.08.2014 08:04 13,7 C 12,8 C 98 % 1014,0 hPa 0,0 l/m 0 min 0 min 0,0 UV-I 42 W/m 0,0 km/h (0 Bft)
31.08.2014 08:06 13,7 C 12,8 C 98 % 1014,0 hPa 0,0 l/m 0 min 0 min 0,0 UV-I 63 W/m 14,2 km/h (3 Bft)
31.08.2014 08:08 13,7 C 12,8 C 98 % 1014,0 hPa 0,0 l/m 0 min 0 min 0,0 UV-I 67 W/m 21,3 km/h (4 Bft)
31.08.2014 08:10 13,7 C 12,8 C 98 % 1014,0 hPa 0,0 l/m 0 min 0 min 0,0 UV-I 44 W/m 14,2 km/h (3 Bft)
31.08.2014 08:12 13,7 C 12,8 C 98 % 1014,0 hPa 0,0 l/m 0 min 0 min 0,0 UV-I 28 W/m 21,3 km/h (4 Bft)
31.08.2014 08:14 13,7 C 12,8 C 98 % 1013,9 hPa 0,0 l/m 0 min 0 min 0,0 UV-I 24 W/m 21,3 km/h (4 Bft)
31.08.2014 08:16 13,8 C 12,8 C 98 % 1013,9 hPa 0,0 l/m 0 min 0 min 0,0 UV-I 23 W/m 24,7 km/h (4 Bft)
31.08.2014 08:18 13,8 C 12,8 C 98 % 1013,9 hPa 0,0 l/m 0 min 0 min 0,0 UV-I 22 W/m 21,3 km/h (4 Bft)
31.08.2014 08:20 13,8 C 12,8 C 98 % 1013,9 hPa 0,0 l/m 0 min 0 min 0,0 UV-I 22 W/m 3,5 km/h (1 Bft)
31.08.2014 08:22 13,8 C 12,8 C 98 % 1013,9 hPa 0,0 l/m 0 min 0 min 0,0 UV-I 21 W/m 17,7 km/h (3 Bft)
31.08.2014 08:24 13,8 C 12,8 C 98 % 1013,9 hPa 0,0 l/m 0 min 0 min 0,0 UV-I 21 W/m 14,2 km/h (3 Bft)
31.08.2014 08:26 13,8 C 12,8 C 98 % 1013,9 hPa 0,0 l/m 0 min 0 min 0,0 UV-I 27 W/m 24,7 km/h (4 Bft)
31.08.2014 08:28 13,7 C 12,8 C 98 % 1013,9 hPa 0,0 l/m 0 min 0 min 0,0 UV-I 58 W/m 14,2 km/h (3 Bft)
31.08.2014 08:30 13,8 C 12,8 C 98 % 1013,9 hPa 0,0 l/m 0 min 0 min 0,0 UV-I 83 W/m 0,0 km/h (0 Bft)
31.08.2014 08:32 13,8 C 13,3 C 98 % 1013,9 hPa 0,0 l/m 0 min 0 min 0,0 UV-I 71 W/m 0,0 km/h (0 Bft)
31.08.2014 08:34 13,8 C 13,3 C 98 % 1014,0 hPa 0,0 l/m 0 min 0 min 0,0 UV-I 68 W/m 14,2 km/h (3 Bft)
31.08.2014 08:36 13,8 C 13,3 C 98 % 1013,9 hPa 0,0 l/m 0 min 0 min 0,0 UV-I 72 W/m 17,7 km/h (3 Bft)
31.08.2014 08:38 13,9 C 13,3 C 99 % 1013,9 hPa 0,0 l/m 0 min 0 min 0,0 UV-I 81 W/m 24,7 km/h (4 Bft)
31.08.2014 08:40 13,9 C 13,3 C 99 % 1013,9 hPa 0,0 l/m 0 min 0 min 0,0 UV-I 84 W/m 17,7 km/h (3 Bft)
31.08.2014 08:42 13,9 C 13,3 C 99 % 1013,9 hPa 0,0 l/m 0 min 0 min 0,0 UV-I 87 W/m 10,7 km/h (2 Bft)
31.08.2014 08:44 13,9 C 13,3 C 99 % 1013,9 hPa 0,0 l/m 0 min 0 min 0,0 UV-I 79 W/m 21,3 km/h (4 Bft)
31.08.2014 08:46 14,0 C 13,3 C 99 % 1013,9 hPa 0,0 l/m 0 min 0 min 0,0 UV-I 77 W/m 14,2 km/h (3 Bft)
31.08.2014 08:48 14,0 C 13,3 C 99 % 1013,9 hPa 0,0 l/m 0 min 0 min 0,0 UV-I 87 W/m 24,7 km/h (4 Bft)
31.08.2014 08:50 14,1 C 13,3 C 99 % 1013,9 hPa 0,0 l/m 0 min 0 min 0,0 UV-I 103 W/m 24,7 km/h (4 Bft)
31.08.2014 08:52 14,1 C 13,3 C 99 % 1013,9 hPa 0,0 l/m 0 min 0 min 0,0 UV-I 114 W/m 24,7 km/h (4 Bft)
31.08.2014 08:54 14,1 C 13,3 C 99 % 1013,9 hPa 0,0 l/m 0 min 0 min 0,0 UV-I 107 W/m 21,3 km/h (4 Bft)
31.08.2014 08:56 14,2 C 13,3 C 99 % 1013,9 hPa 0,0 l/m 0 min 0 min 0,0 UV-I 92 W/m 28,2 km/h (4 Bft)
31.08.2014 08:58 14,2 C 13,3 C 99 % 1013,9 hPa 0,0 l/m 0 min 0 min 0,0 UV-I 102 W/m 17,7 km/h (3 Bft)
31.08.2014 09:00 14,2 C 13,3 C 99 % 1014,0 hPa 0,0 l/m 0 min 0 min 0,0 UV-I 89 W/m 24,7 km/h (4 Bft)
31.08.2014 09:02 14,2 C 13,3 C 99 % 1013,9 hPa 0,0 l/m 0 min 0 min 0,0 UV-I 92 W/m 28,2 km/h (4 Bft)
31.08.2014 09:04 14,2 C 13,3 C 99 % 1013,9 hPa 0,0 l/m 0 min 0 min 0,0 UV-I 87 W/m 42,4 km/h (6 Bft)
31.08.2014 09:06 14,2 C 13,3 C 99 % 1014,0 hPa 0,0 l/m 0 min 0 min 0,0 UV-I 89 W/m 35,4 km/h (5 Bft)
31.08.2014 09:08 14,2 C 13,3 C 99 % 1014,0 hPa 0,0 l/m 0 min 0 min 0,0 UV-I 87 W/m 24,7 km/h (4 Bft)
31.08.2014 09:10 14,2 C 13,3 C 99 % 1014,0 hPa 0,0 l/m 0 min 0 min 0,0 UV-I 87 W/m 24,7 km/h (4 Bft)
31.08.2014 09:12 14,2 C 13,3 C 99 % 1014,1 hPa 0,0 l/m 0 min 0 min 0,0 UV-I 80 W/m 14,2 km/h (3 Bft)
31.08.2014 09:14 14,2 C 13,3 C 99 % 1014,1 hPa 0,0 l/m 0 min 0 min 0,0 UV-I 76 W/m 10,7 km/h (2 Bft)
31.08.2014 09:16 14,2 C 13,3 C 99 % 1014,1 hPa 0,0 l/m 0 min 0 min 0,0 UV-I 86 W/m 24,7 km/h (4 Bft)
31.08.2014 09:18 14,2 C 13,3 C 99 % 1014,2 hPa 0,0 l/m 0 min 0 min 0,0 UV-I 69 W/m 21,3 km/h (4 Bft)
31.08.2014 09:20 14,2 C 13,3 C 99 % 1014,1 hPa 0,0 l/m 0 min 0 min 0,0 UV-I 54 W/m 17,7 km/h (3 Bft)
31.08.2014 09:22 14,2 C 13,3 C 99 % 1014,1 hPa 0,0 l/m 0 min 0 min 0,0 UV-I 62 W/m 17,7 km/h (3 Bft)
31.08.2014 09:24 14,2 C 13,3 C 99 % 1014,2 hPa 0,0 l/m 0 min 0 min 0,0 UV-I 82 W/m 31,7 km/h (5 Bft)
31.08.2014 09:26 14,2 C 13,9 C 99 % 1014,1 hPa 0,0 l/m 0 min 0 min 0,0 UV-I 105 W/m 28,2 km/h (4 Bft)
31.08.2014 09:28 14,2 C 13,9 C 99 % 1014,1 hPa 0,0 l/m 0 min 0 min 0,0 UV-I 112 W/m 14,2 km/h (3 Bft)
31.08.2014 09:30 14,2 C 13,9 C 99 % 1014,1 hPa 0,0 l/m 0 min 0 min 0,0 UV-I 101 W/m 17,7 km/h (3 Bft)
31.08.2014 09:32 14,2 C 13,9 C 99 % 1014,2 hPa 0,0 l/m 0 min 0 min 0,0 UV-I 124 W/m 28,2 km/h (4 Bft)
31.08.2014 09:34 14,2 C 13,9 C 99 % 1014,2 hPa 0,0 l/m 0 min 0 min 0,0 UV-I 117 W/m 17,7 km/h (3 Bft)
31.08.2014 09:36 14,2 C 13,9 C 99 % 1014,2 hPa 0,0 l/m 0 min 0 min 0,0 UV-I 94 W/m 14,2 km/h (3 Bft)
31.08.2014 09:38 14,3 C 13,9 C 99 % 1014,2 hPa 0,0 l/m 0 min 0 min 0,0 UV-I 81 W/m 24,7 km/h (4 Bft)
31.08.2014 09:40 14,3 C 13,9 C 99 % 1014,2 hPa 0,0 l/m 0 min 0 min 0,0 UV-I 85 W/m 24,7 km/h (4 Bft)
31.08.2014 09:42 14,3 C 13,9 C 99 % 1014,2 hPa 0,0 l/m 0 min 0 min 0,0 UV-I 95 W/m 17,7 km/h (3 Bft)
31.08.2014 09:44 14,3 C 13,9 C 99 % 1014,2 hPa 0,0 l/m 0 min 0 min 0,0 UV-I 106 W/m 17,7 km/h (3 Bft)
31.08.2014 09:46 14,4 C 13,9 C 99 % 1014,1 hPa 0,0 l/m 0 min 0 min 0,0 UV-I 106 W/m 17,7 km/h (3 Bft)
31.08.2014 09:48 14,4 C 13,9 C 99 % 1014,2 hPa 0,0 l/m 0 min 0 min 0,0 UV-I 104 W/m 17,7 km/h (3 Bft)
31.08.2014 09:50 14,4 C 13,9 C 99 % 1014,2 hPa 0,0 l/m 0 min 0 min 0,0 UV-I 107 W/m 14,2 km/h (3 Bft)
31.08.2014 09:52 14,4 C 13,9 C 99 % 1014,2 hPa 0,0 l/m 0 min 0 min 0,0 UV-I 105 W/m 14,2 km/h (3 Bft)
31.08.2014 09:54 14,5 C 13,9 C 99 % 1014,2 hPa 0,0 l/m 0 min 0 min 0,0 UV-I 106 W/m 21,3 km/h (4 Bft)
31.08.2014 09:56 14,5 C 13,9 C 99 % 1014,2 hPa 0,0 l/m 0 min 0 min 0,0 UV-I 110 W/m 21,3 km/h (4 Bft)
31.08.2014 09:58 14,5 C 13,9 C 99 % 1014,2 hPa 0,0 l/m 0 min 0 min 0,0 UV-I 103 W/m 21,3 km/h (4 Bft)
31.08.2014 10:00 14,6 C 13,9 C 99 % 1014,2 hPa 0,0 l/m 0 min 0 min 0,0 UV-I 105 W/m 21,3 km/h (4 Bft)
31.08.2014 10:02 14,6 C 13,9 C 99 % 1014,2 hPa 0,0 l/m 0 min 0 min 0,0 UV-I 107 W/m 14,2 km/h (3 Bft)
31.08.2014 10:04 14,6 C 13,9 C 99 % 1014,2 hPa 0,0 l/m 0 min 0 min 0,0 UV-I 105 W/m 14,2 km/h (3 Bft)
31.08.2014 10:06 14,7 C 13,9 C 99 % 1014,3 hPa 0,0 l/m 0 min 0 min 0,0 UV-I 90 W/m 14,2 km/h (3 Bft)
31.08.2014 10:08 14,6 C 13,9 C 99 % 1014,2 hPa 0,0 l/m 0 min 0 min 0,0 UV-I 109 W/m 17,7 km/h (3 Bft)
31.08.2014 10:10 14,7 C 13,9 C 99 % 1014,3 hPa 0,0 l/m 0 min 0 min 0,0 UV-I 123 W/m 24,7 km/h (4 Bft)
31.08.2014 10:12 14,7 C 13,9 C 99 % 1014,3 hPa 0,0 l/m 0 min 0 min 0,0 UV-I 109 W/m 21,3 km/h (4 Bft)
31.08.2014 10:14 14,7 C 13,9 C 99 % 1014,3 hPa 0,0 l/m 0 min 0 min 0,0 UV-I 94 W/m 17,7 km/h (3 Bft)
31.08.2014 10:16 14,7 C 13,9 C 99 % 1014,3 hPa 0,0 l/m 0 min 0 min 0,0 UV-I 87 W/m 10,7 km/h (2 Bft)
31.08.2014 10:18 14,7 C 13,9 C 99 % 1014,3 hPa 0,0 l/m 0 min 0 min 0,0 UV-I 101 W/m 17,7 km/h (3 Bft)
31.08.2014 10:20 14,7 C 14,4 C 99 % 1014,3 hPa 0,0 l/m 0 min 0 min 0,0 UV-I 113 W/m 14,2 km/h (3 Bft)
31.08.2014 10:22 14,7 C 14,4 C 99 % 1014,3 hPa 0,0 l/m 0 min 0 min 0,0 UV-I 133 W/m 17,7 km/h (3 Bft)
31.08.2014 10:24 14,8 C 14,4 C 99 % 1014,2 hPa 0,0 l/m 0 min 0 min 0,0 UV-I 151 W/m 7,1 km/h (2 Bft)
31.08.2014 10:26 14,8 C 14,4 C 99 % 1014,3 hPa 0,0 l/m 0 min 0 min 0,0 UV-I 162 W/m 0,0 km/h (0 Bft)
31.08.2014 10:28 14,8 C 14,4 C 99 % 1014,2 hPa 0,0 l/m 0 min 0 min 0,0 UV-I 230 W/m 0,0 km/h (0 Bft)
31.08.2014 10:30 14,9 C 15,0 C 99 % 1014,3 hPa 0,0 l/m 0 min 0 min 0,0 UV-I 251 W/m 0,0 km/h (0 Bft)
31.08.2014 10:32 14,9 C 15,0 C 99 % 1014,2 hPa 0,0 l/m 0 min 0 min 0,0 UV-I 226 W/m 0,0 km/h (0 Bft)
31.08.2014 10:34 15,1 C 15,0 C 99 % 1014,2 hPa 0,0 l/m 0 min 0 min 0,1 UV-I 222 W/m 10,7 km/h (2 Bft)
31.08.2014 10:36 15,2 C 15,6 C 99 % 1014,2 hPa 0,0 l/m 0 min 0 min 0,6 UV-I 254 W/m 10,7 km/h (2 Bft)
31.08.2014 10:38 15,2 C 15,0 C 99 % 1014,2 hPa 0,0 l/m 0 min 0 min 0,1 UV-I 196 W/m 0,0 km/h (0 Bft)
31.08.2014 10:40 15,3 C 15,0 C 99 % 1014,2 hPa 0,0 l/m 0 min 0 min 0,0 UV-I 180 W/m 17,7 km/h (3 Bft)
31.08.2014 10:42 15,3 C 15,0 C 99 % 1014,3 hPa 0,0 l/m 0 min 0 min 0,0 UV-I 156 W/m 14,2 km/h (3 Bft)
31.08.2014 10:44 15,4 C 15,0 C 99 % 1014,4 hPa 0,0 l/m 0 min 0 min 0,0 UV-I 142 W/m 10,7 km/h (2 Bft)
31.08.2014 10:46 15,4 C 15,0 C 99 % 1014,3 hPa 0,0 l/m 0 min 0 min 0,0 UV-I 163 W/m 17,7 km/h (3 Bft)
31.08.2014 10:48 15,5 C 15,0 C 99 % 1014,3 hPa 0,0 l/m 0 min 0 min 0,2 UV-I 198 W/m 17,7 km/h (3 Bft)
31.08.2014 10:50 15,5 C 15,6 C 99 % 1014,3 hPa 0,0 l/m 2 min 0 min 0,9 UV-I 324 W/m 21,3 km/h (4 Bft)
31.08.2014 10:52 15,6 C 16,1 C 99 % 1014,3 hPa 0,0 l/m 2 min 0 min 1,1 UV-I 408 W/m 21,3 km/h (4 Bft)
31.08.2014 10:54 15,7 C 16,1 C 99 % 1014,3 hPa 0,0 l/m 2 min 0 min 1,0 UV-I 418 W/m 17,7 km/h (3 Bft)
31.08.2014 10:56 15,8 C 16,1 C 99 % 1014,3 hPa 0,0 l/m 0 min 0 min 0,3 UV-I 271 W/m 10,7 km/h (2 Bft)
31.08.2014 10:58 15,8 C 15,6 C 99 % 1014,3 hPa 0,0 l/m 0 min 0 min 0,0 UV-I 165 W/m 14,2 km/h (3 Bft)
31.08.2014 11:00 15,9 C 15,6 C 99 % 1014,3 hPa 0,0 l/m 0 min 0 min 0,0 UV-I 108 W/m 17,7 km/h (3 Bft)
31.08.2014 11:02 15,9 C 15,0 C 99 % 1014,4 hPa 0,0 l/m 0 min 2 min 0,0 UV-I 59 W/m 14,2 km/h (3 Bft)
31.08.2014 11:04 15,9 C 15,0 C 99 % 1014,4 hPa 0,0 l/m 0 min 2 min 0,0 UV-I 33 W/m 14,2 km/h (3 Bft)
31.08.2014 11:06 15,9 C 13,9 C 99 % 1014,4 hPa 1,2 l/m 0 min 2 min 0,0 UV-I 40 W/m 21,3 km/h (4 Bft)
31.08.2014 11:08 15,8 C 13,9 C 99 % 1014,3 hPa 1,6 l/m 0 min 2 min 0,0 UV-I 71 W/m 14,2 km/h (3 Bft)
31.08.2014 11:10 15,8 C 13,9 C 99 % 1014,3 hPa 0,2 l/m 0 min 2 min 0,0 UV-I 96 W/m 10,7 km/h (2 Bft)
31.08.2014 11:12 15,8 C 13,9 C 99 % 1014,3 hPa 0,0 l/m 0 min 2 min 0,0 UV-I 118 W/m 0,0 km/h (0 Bft)
31.08.2014 11:14 15,8 C 13,9 C 99 % 1014,3 hPa 0,0 l/m 0 min 2 min 0,0 UV-I 142 W/m 0,0 km/h (0 Bft)
31.08.2014 11:16 15,8 C 14,4 C 99 % 1014,3 hPa 0,0 l/m 0 min 0 min 0,3 UV-I 167 W/m 0,0 km/h (0 Bft)
31.08.2014 11:18 15,8 C 14,4 C 99 % 1014,3 hPa 0,0 l/m 0 min 0 min 0,6 UV-I 187 W/m 0,0 km/h (0 Bft)
31.08.2014 11:20 15,8 C 15,0 C 99 % 1014,2 hPa 0,0 l/m 0 min 0 min 0,8 UV-I 205 W/m 0,0 km/h (0 Bft)
31.08.2014 11:22 15,9 C 15,0 C 99 % 1014,2 hPa 0,0 l/m 0 min 0 min 0,9 UV-I 221 W/m 10,7 km/h (2 Bft)
31.08.2014 11:24 15,9 C 15,0 C 99 % 1014,2 hPa 0,0 l/m 0 min 0 min 1,0 UV-I 230 W/m 10,7 km/h (2 Bft)
31.08.2014 11:26 15,9 C 15,0 C 99 % 1014,2 hPa 0,0 l/m 0 min 0 min 1,0 UV-I 227 W/m 14,2 km/h (3 Bft)
31.08.2014 11:28 16,0 C 15,0 C 99 % 1014,2 hPa 0,0 l/m 0 min 0 min 0,9 UV-I 219 W/m 10,7 km/h (2 Bft)
31.08.2014 11:30 16,1 C 15,0 C 99 % 1014,2 hPa 0,0 l/m 0 min 0 min 0,9 UV-I 207 W/m 14,2 km/h (3 Bft)
31.08.2014 11:32 16,1 C 15,0 C 99 % 1014,2 hPa 0,0 l/m 0 min 0 min 0,9 UV-I 200 W/m 17,7 km/h (3 Bft)
31.08.2014 11:34 16,1 C 15,0 C 99 % 1014,2 hPa 0,0 l/m 0 min 0 min 1,2 UV-I 266 W/m 21,3 km/h (4 Bft)
31.08.2014 11:36 16,1 C 15,0 C 99 % 1014,2 hPa 0,0 l/m 0 min 0 min 1,3 UV-I 288 W/m 21,3 km/h (4 Bft)
31.08.2014 11:38 16,1 C 15,0 C 99 % 1014,2 hPa 0,0 l/m 0 min 0 min 1,3 UV-I 283 W/m 17,7 km/h (3 Bft)
31.08.2014 11:40 16,1 C 15,0 C 99 % 1014,2 hPa 0,0 l/m 0 min 0 min 1,2 UV-I 242 W/m 17,7 km/h (3 Bft)
31.08.2014 11:42 16,2 C 15,0 C 98 % 1014,2 hPa 0,0 l/m 0 min 0 min 1,4 UV-I 295 W/m 21,3 km/h (4 Bft)
31.08.2014 11:44 16,2 C 15,6 C 98 % 1014,1 hPa 0,0 l/m 0 min 0 min 1,4 UV-I 320 W/m 17,7 km/h (3 Bft)
31.08.2014 11:46 16,2 C 15,6 C 98 % 1014,1 hPa 0,0 l/m 0 min 0 min 1,3 UV-I 251 W/m 17,7 km/h (3 Bft)
31.08.2014 11:48 16,2 C 15,6 C 98 % 1014,2 hPa 0,0 l/m 0 min 0 min 1,5 UV-I 317 W/m 14,2 km/h (3 Bft)
31.08.2014 11:50 16,3 C 16,1 C 98 % 1014,2 hPa 0,0 l/m 2 min 0 min 2,1 UV-I 392 W/m 17,7 km/h (3 Bft)
31.08.2014 11:52 16,4 C 16,1 C 98 % 1014,2 hPa 0,0 l/m 2 min 0 min 2,2 UV-I 386 W/m 17,7 km/h (3 Bft)
31.08.2014 11:54 16,5 C 16,1 C 98 % 1014,2 hPa 0,0 l/m 2 min 0 min 2,0 UV-I 383 W/m 21,3 km/h (4 Bft)
31.08.2014 11:56 16,6 C 16,1 C 98 % 1014,1 hPa 0,0 l/m 2 min 0 min 2,2 UV-I 564 W/m 24,7 km/h (4 Bft)
31.08.2014 11:58 16,7 C 16,7 C 98 % 1014,1 hPa 0,0 l/m 2 min 0 min 2,1 UV-I 601 W/m 17,7 km/h (3 Bft)
31.08.2014 12:00 16,7 C 16,7 C 98 % 1014,1 hPa 0,0 l/m 2 min 0 min 1,7 UV-I 469 W/m 24,7 km/h (4 Bft)
31.08.2014 12:02 16,8 C 16,1 C 98 % 1014,1 hPa 0,0 l/m 0 min 0 min 1,5 UV-I 307 W/m 24,7 km/h (4 Bft)
31.08.2014 12:06 16,9 C 16,1 C 98 % 1014,1 hPa 0,0 l/m 0 min 0 min 1,8 UV-I 313 W/m 21,3 km/h (4 Bft)
31.08.2014 12:08 16,9 C 16,7 C 98 % 1014,1 hPa 0,0 l/m 2 min 0 min 2,0 UV-I 382 W/m 21,3 km/h (4 Bft)
31.08.2014 12:10 16,9 C 16,7 C 98 % 1014,0 hPa 0,0 l/m 2 min 0 min 1,9 UV-I 408 W/m 21,3 km/h (4 Bft)
31.08.2014 12:12 16,9 C 16,1 C 98 % 1014,0 hPa 0,0 l/m 0 min 0 min 1,8 UV-I 325 W/m 21,3 km/h (4 Bft)
31.08.2014 12:14 16,9 C 16,1 C 97 % 1014,1 hPa 0,0 l/m 2 min 0 min 2,0 UV-I 425 W/m 21,3 km/h (4 Bft)
31.08.2014 12:16 17,1 C 16,7 C 98 % 1014,1 hPa 0,0 l/m 2 min 0 min 2,0 UV-I 514 W/m 14,2 km/h (3 Bft)
31.08.2014 12:18 17,2 C 16,7 C 97 % 1014,0 hPa 0,0 l/m 2 min 0 min 1,9 UV-I 412 W/m 24,7 km/h (4 Bft)
31.08.2014 12:20 17,3 C 16,7 C 97 % 1014,0 hPa 0,0 l/m 2 min 0 min 1,8 UV-I 375 W/m 21,3 km/h (4 Bft)
31.08.2014 12:22 17,3 C 16,7 C 97 % 1014,0 hPa 0,0 l/m 0 min 0 min 1,7 UV-I 334 W/m 17,7 km/h (3 Bft)
31.08.2014 12:24 17,4 C 16,7 C 97 % 1014,0 hPa 0,0 l/m 2 min 2 min 1,7 UV-I 352 W/m 24,7 km/h (4 Bft)
31.08.2014 12:26 17,5 C 16,7 C 97 % 1014,0 hPa 0,0 l/m 0 min 2 min 1,3 UV-I 312 W/m 21,3 km/h (4 Bft)
31.08.2014 12:28 17,6 C 16,1 C 96 % 1014,0 hPa 0,0 l/m 0 min 2 min 1,1 UV-I 257 W/m 28,2 km/h (4 Bft)
31.08.2014 12:30 17,6 C 16,1 C 96 % 1014,0 hPa 0,0 l/m 0 min 2 min 1,2 UV-I 218 W/m 28,2 km/h (4 Bft)
31.08.2014 12:32 17,6 C 16,1 C 96 % 1014,0 hPa 0,0 l/m 0 min 2 min 1,4 UV-I 273 W/m 17,7 km/h (3 Bft)
31.08.2014 12:34 17,6 C 16,1 C 96 % 1014,0 hPa 0,0 l/m 0 min 0 min 1,4 UV-I 280 W/m 10,7 km/h (2 Bft)
31.08.2014 12:36 17,7 C 16,1 C 96 % 1014,0 hPa 0,0 l/m 0 min 0 min 1,3 UV-I 274 W/m 17,7 km/h (3 Bft)
31.08.2014 12:38 17,7 C 16,1 C 95 % 1014,0 hPa 0,0 l/m 0 min 0 min 1,5 UV-I 287 W/m 17,7 km/h (3 Bft)
31.08.2014 12:40 17,7 C 16,1 C 95 % 1013,9 hPa 0,0 l/m 2 min 0 min 1,9 UV-I 400 W/m 17,7 km/h (3 Bft)
31.08.2014 12:42 17,7 C 16,1 C 94 % 1014,0 hPa 0,0 l/m 2 min 0 min 2,2 UV-I 413 W/m 10,7 km/h (2 Bft)
31.08.2014 12:44 17,7 C 16,1 C 94 % 1014,0 hPa 0,0 l/m 2 min 0 min 1,7 UV-I 383 W/m 0,0 km/h (0 Bft)
31.08.2014 12:46 17,8 C 16,1 C 94 % 1013,9 hPa 0,0 l/m 0 min 0 min 1,5 UV-I 309 W/m 24,7 km/h (4 Bft)
31.08.2014 12:48 17,8 C 16,1 C 94 % 1014,0 hPa 0,0 l/m 2 min 0 min 1,2 UV-I 358 W/m 10,7 km/h (2 Bft)
31.08.2014 12:50 17,9 C 16,1 C 94 % 1013,9 hPa 0,0 l/m 0 min 0 min 1,0 UV-I 212 W/m 14,2 km/h (3 Bft)
31.08.2014 12:52 17,9 C 16,1 C 94 % 1013,9 hPa 0,0 l/m 0 min 0 min 0,8 UV-I 177 W/m 10,7 km/h (2 Bft)
31.08.2014 12:54 17,9 C 16,1 C 93 % 1013,9 hPa 0,0 l/m 0 min 0 min 0,7 UV-I 168 W/m 17,7 km/h (3 Bft)
31.08.2014 12:56 17,9 C 15,6 C 92 % 1013,9 hPa 0,0 l/m 0 min 0 min 0,8 UV-I 169 W/m 7,1 km/h (2 Bft)
31.08.2014 12:58 17,9 C 16,1 C 92 % 1013,9 hPa 0,0 l/m 0 min 0 min 1,0 UV-I 210 W/m 3,5 km/h (1 Bft)
31.08.2014 13:00 17,9 C 16,1 C 92 % 1013,8 hPa 0,0 l/m 0 min 0 min 1,2 UV-I 230 W/m 10,7 km/h (2 Bft)
31.08.2014 13:02 17,9 C 16,1 C 91 % 1013,9 hPa 0,0 l/m 0 min 0 min 1,4 UV-I 308 W/m 24,7 km/h (4 Bft)
31.08.2014 13:04 17,9 C 16,7 C 91 % 1013,8 hPa 0,0 l/m 2 min 0 min 2,8 UV-I 381 W/m 24,7 km/h (4 Bft)
31.08.2014 13:06 18,0 C 16,7 C 91 % 1013,9 hPa 0,0 l/m 0 min 0 min 1,5 UV-I 267 W/m 24,7 km/h (4 Bft)
31.08.2014 13:08 18,1 C 16,1 C 91 % 1013,7 hPa 0,2 l/m 0 min 2 min 0,1 UV-I 159 W/m 17,7 km/h (3 Bft)
31.08.2014 13:10 18,1 C 15,6 C 91 % 1013,7 hPa 0,2 l/m 0 min 2 min 0,0 UV-I 152 W/m 14,2 km/h (3 Bft)
31.08.2014 13:12 18,1 C 15,6 C 91 % 1013,6 hPa 0,0 l/m 0 min 2 min 0,7 UV-I 189 W/m 14,2 km/h (3 Bft)
31.08.2014 13:14 18,2 C 15,6 C 91 % 1013,5 hPa 0,0 l/m 0 min 2 min 1,0 UV-I 238 W/m 17,7 km/h (3 Bft)
31.08.2014 13:16 18,2 C 16,1 C 91 % 1013,5 hPa 0,0 l/m 0 min 2 min 1,4 UV-I 298 W/m 10,7 km/h (2 Bft)
31.08.2014 13:18 18,2 C 16,1 C 91 % 1013,5 hPa 0,0 l/m 0 min 2 min 1,8 UV-I 326 W/m 0,0 km/h (0 Bft)
31.08.2014 13:20 18,3 C 16,7 C 91 % 1013,5 hPa 0,0 l/m 2 min 0 min 2,4 UV-I 364 W/m 21,3 km/h (4 Bft)
31.08.2014 13:22 18,3 C 16,1 C 91 % 1013,5 hPa 0,0 l/m 2 min 0 min 2,1 UV-I 412 W/m 24,7 km/h (4 Bft)
31.08.2014 13:24 18,3 C 16,7 C 91 % 1013,5 hPa 0,0 l/m 2 min 0 min 2,0 UV-I 390 W/m 21,3 km/h (4 Bft)
31.08.2014 13:26 18,4 C 16,7 C 91 % 1013,5 hPa 0,0 l/m 0 min 0 min 1,5 UV-I 292 W/m 17,7 km/h (3 Bft)
31.08.2014 13:28 18,3 C 16,1 C 91 % 1013,6 hPa 0,0 l/m 0 min 0 min 1,0 UV-I 217 W/m 17,7 km/h (3 Bft)
31.08.2014 13:30 18,3 C 16,1 C 90 % 1013,7 hPa 0,0 l/m 0 min 0 min 0,8 UV-I 191 W/m 14,2 km/h (3 Bft)
31.08.2014 13:32 18,4 C 16,1 C 90 % 1013,6 hPa 0,0 l/m 0 min 0 min 0,8 UV-I 183 W/m 14,2 km/h (3 Bft)
31.08.2014 13:34 18,4 C 16,1 C 90 % 1013,6 hPa 0,0 l/m 0 min 0 min 0,7 UV-I 170 W/m 31,7 km/h (5 Bft)
31.08.2014 13:36 18,3 C 15,6 C 90 % 1013,8 hPa 0,0 l/m 0 min 0 min 0,8 UV-I 182 W/m 24,7 km/h (4 Bft)
31.08.2014 13:38 18,3 C 15,6 C 89 % 1013,9 hPa 0,0 l/m 0 min 0 min 0,4 UV-I 162 W/m 35,4 km/h (5 Bft)
31.08.2014 13:40 18,3 C 15,6 C 89 % 1013,9 hPa 0,0 l/m 0 min 0 min 0,0 UV-I 103 W/m 28,2 km/h (4 Bft)
31.08.2014 13:42 18,2 C 15,0 C 89 % 1013,9 hPa 0,0 l/m 0 min 0 min 0,0 UV-I 59 W/m 31,7 km/h (5 Bft)
31.08.2014 13:44 18,1 C 13,9 C 89 % 1014,2 hPa 3,2 l/m 0 min 2 min 0,0 UV-I 54 W/m 49,5 km/h (6 Bft)
31.08.2014 13:46 17,8 C 12,2 C 87 % 1013,9 hPa 1,0 l/m 0 min 2 min 0,0 UV-I 82 W/m 42,4 km/h (6 Bft)
31.08.2014 13:48 17,6 C 12,8 C 85 % 1014,0 hPa 0,2 l/m 0 min 2 min 0,0 UV-I 109 W/m 31,7 km/h (5 Bft)
31.08.2014 13:50 17,4 C 13,3 C 85 % 1014,0 hPa 0,0 l/m 0 min 2 min 0,0 UV-I 136 W/m 35,4 km/h (5 Bft)
31.08.2014 13:52 17,4 C 13,9 C 86 % 1014,0 hPa 0,0 l/m 0 min 2 min 0,0 UV-I 157 W/m 14,2 km/h (3 Bft)
31.08.2014 13:54 17,3 C 13,9 C 87 % 1013,9 hPa 0,0 l/m 0 min 2 min 0,5 UV-I 169 W/m 24,7 km/h (4 Bft)
31.08.2014 13:56 17,2 C 14,4 C 87 % 1013,9 hPa 0,0 l/m 0 min 0 min 0,7 UV-I 185 W/m 21,3 km/h (4 Bft)
31.08.2014 13:58 17,2 C 14,4 C 88 % 1013,9 hPa 0,0 l/m 0 min 0 min 0,9 UV-I 207 W/m 10,7 km/h (2 Bft)
31.08.2014 14:00 17,2 C 14,4 C 88 % 1013,9 hPa 0,0 l/m 0 min 0 min 1,2 UV-I 243 W/m 17,7 km/h (3 Bft)
31.08.2014 14:02 17,2 C 15,0 C 89 % 1013,9 hPa 0,0 l/m 0 min 0 min 1,4 UV-I 288 W/m 21,3 km/h (4 Bft)
31.08.2014 14:04 17,1 C 15,0 C 89 % 1013,9 hPa 0,0 l/m 0 min 0 min 1,8 UV-I 334 W/m 21,3 km/h (4 Bft)
31.08.2014 14:06 17,1 C 15,0 C 90 % 1013,9 hPa 0,0 l/m 2 min 0 min 2,1 UV-I 370 W/m 17,7 km/h (3 Bft)
31.08.2014 14:08 17,1 C 15,6 C 90 % 1013,9 hPa 0,0 l/m 2 min 0 min 2,6 UV-I 463 W/m 28,2 km/h (4 Bft)
31.08.2014 14:10 17,1 C 15,6 C 90 % 1013,9 hPa 0,0 l/m 2 min 0 min 2,3 UV-I 441 W/m 28,2 km/h (4 Bft)
31.08.2014 14:12 17,2 C 15,6 C 91 % 1013,8 hPa 0,0 l/m 2 min 0 min 3,0 UV-I 547 W/m 21,3 km/h (4 Bft)
31.08.2014 14:14 17,3 C 16,1 C 91 % 1013,5 hPa 0,0 l/m 2 min 0 min 2,9 UV-I 642 W/m 21,3 km/h (4 Bft)
31.08.2014 14:16 17,4 C 16,7 C 92 % 1013,5 hPa 0,0 l/m 2 min 0 min 3,1 UV-I 698 W/m 14,2 km/h (3 Bft)
31.08.2014 14:18 17,7 C 16,7 C 93 % 1013,4 hPa 0,0 l/m 2 min 0 min 3,4 UV-I 724 W/m 21,3 km/h (4 Bft)
31.08.2014 14:20 17,9 C 17,2 C 93 % 1013,5 hPa 0,0 l/m 2 min 0 min 3,5 UV-I 739 W/m 21,3 km/h (4 Bft)
31.08.2014 14:22 18,2 C 17,2 C 94 % 1013,5 hPa 0,0 l/m 2 min 0 min 3,5 UV-I 756 W/m 17,7 km/h (3 Bft)
31.08.2014 14:24 18,4 C 17,2 C 94 % 1013,6 hPa 0,0 l/m 2 min 0 min 3,4 UV-I 777 W/m 28,2 km/h (4 Bft)
31.08.2014 14:26 18,6 C 17,8 C 94 % 1013,6 hPa 0,0 l/m 2 min 0 min 3,5 UV-I 795 W/m 28,2 km/h (4 Bft)
31.08.2014 14:28 18,8 C 17,8 C 94 % 1013,5 hPa 0,0 l/m 2 min 0 min 3,3 UV-I 803 W/m 17,7 km/h (3 Bft)
31.08.2014 14:30 18,8 C 17,8 C 93 % 1013,6 hPa 0,0 l/m 2 min 0 min 2,3 UV-I 612 W/m 46,0 km/h (6 Bft)
31.08.2014 14:32 18,9 C 17,2 C 92 % 1013,6 hPa 0,0 l/m 2 min 0 min 2,1 UV-I 383 W/m 28,2 km/h (4 Bft)
31.08.2014 14:34 18,9 C 17,2 C 91 % 1013,6 hPa 0,0 l/m 0 min 0 min 1,8 UV-I 347 W/m 28,2 km/h (4 Bft)
31.08.2014 14:36 18,8 C 16,7 C 89 % 1013,6 hPa 0,0 l/m 0 min 0 min 1,6 UV-I 269 W/m 24,7 km/h (4 Bft)
31.08.2014 14:38 18,8 C 16,7 C 88 % 1013,6 hPa 0,0 l/m 0 min 0 min 1,5 UV-I 269 W/m 24,7 km/h (4 Bft)
31.08.2014 14:40 18,8 C 16,7 C 87 % 1013,7 hPa 0,0 l/m 0 min 0 min 1,6 UV-I 279 W/m 38,9 km/h (6 Bft)
31.08.2014 14:42 18,8 C 16,1 C 85 % 1013,7 hPa 0,0 l/m 0 min 0 min 1,8 UV-I 325 W/m 24,7 km/h (4 Bft)
31.08.2014 14:44 18,8 C 16,1 C 84 % 1013,7 hPa 0,0 l/m 0 min 0 min 1,4 UV-I 239 W/m 28,2 km/h (4 Bft)
31.08.2014 14:46 18,7 C 16,1 C 84 % 1014,0 hPa 0,0 l/m 0 min 0 min 1,0 UV-I 174 W/m 42,4 km/h (6 Bft)
31.08.2014 14:48 18,4 C 15,6 C 79 % 1013,9 hPa 0,0 l/m 0 min 0 min 1,2 UV-I 233 W/m 53,0 km/h (7 Bft)
31.08.2014 14:50 18,2 C 15,6 C 78 % 1013,9 hPa 0,0 l/m 0 min 0 min 1,5 UV-I 326 W/m 28,2 km/h (4 Bft)
31.08.2014 14:52 18,2 C 15,6 C 79 % 1014,0 hPa 0,0 l/m 0 min 0 min 1,9 UV-I 322 W/m 31,7 km/h (5 Bft)
31.08.2014 14:54 18,1 C 15,6 C 79 % 1013,9 hPa 0,0 l/m 0 min 0 min 1,6 UV-I 289 W/m 24,7 km/h (4 Bft)
31.08.2014 14:56 17,9 C 15,0 C 78 % 1013,9 hPa 0,0 l/m 0 min 0 min 1,6 UV-I 296 W/m 31,7 km/h (5 Bft)
31.08.2014 14:58 17,8 C 15,0 C 78 % 1013,7 hPa 0,0 l/m 0 min 0 min 1,5 UV-I 301 W/m 28,2 km/h (4 Bft)
31.08.2014 15:00 17,7 C 15,0 C 78 % 1013,8 hPa 0,0 l/m 0 min 0 min 1,6 UV-I 333 W/m 21,3 km/h (4 Bft)
31.08.2014 15:02 17,7 C 15,0 C 78 % 1013,8 hPa 0,0 l/m 0 min 0 min 1,5 UV-I 334 W/m 14,2 km/h (3 Bft)
31.08.2014 15:04 17,7 C 15,0 C 80 % 1013,8 hPa 0,0 l/m 2 min 0 min 1,5 UV-I 363 W/m 17,7 km/h (3 Bft)
31.08.2014 15:06 17,7 C 15,0 C 80 % 1013,9 hPa 0,0 l/m 0 min 0 min 1,3 UV-I 334 W/m 21,3 km/h (4 Bft)
31.08.2014 15:08 17,6 C 15,0 C 80 % 1013,7 hPa 0,0 l/m 0 min 0 min 1,2 UV-I 306 W/m 21,3 km/h (4 Bft)
31.08.2014 15:10 17,6 C 15,0 C 80 % 1013,7 hPa 0,0 l/m 0 min 0 min 1,0 UV-I 277 W/m 17,7 km/h (3 Bft)
31.08.2014 15:12 17,6 C 15,0 C 80 % 1013,6 hPa 0,0 l/m 0 min 0 min 0,9 UV-I 260 W/m 17,7 km/h (3 Bft)
31.08.2014 15:14 17,6 C 15,0 C 80 % 1013,7 hPa 0,0 l/m 0 min 0 min 0,8 UV-I 248 W/m 3,5 km/h (1 Bft)
31.08.2014 15:16 17,6 C 15,0 C 81 % 1013,9 hPa 0,0 l/m 0 min 0 min 0,7 UV-I 231 W/m 14,2 km/h (3 Bft)
31.08.2014 15:18 17,6 C 15,0 C 82 % 1014,0 hPa 0,0 l/m 0 min 0 min 0,6 UV-I 219 W/m 17,7 km/h (3 Bft)
31.08.2014 15:20 17,6 C 15,0 C 82 % 1014,0 hPa 0,0 l/m 0 min 0 min 0,6 UV-I 218 W/m 0,0 km/h (0 Bft)
31.08.2014 15:22 17,6 C 15,6 C 83 % 1014,0 hPa 0,0 l/m 0 min 0 min 0,6 UV-I 221 W/m 21,3 km/h (4 Bft)
31.08.2014 15:24 17,7 C 15,6 C 83 % 1014,0 hPa 0,0 l/m 0 min 0 min 0,6 UV-I 223 W/m 21,3 km/h (4 Bft)
31.08.2014 15:26 17,7 C 15,6 C 83 % 1014,0 hPa 0,0 l/m 0 min 0 min 0,6 UV-I 222 W/m 17,7 km/h (3 Bft)
31.08.2014 15:28 17,7 C 15,6 C 83 % 1014,0 hPa 0,0 l/m 0 min 0 min 0,5 UV-I 215 W/m 24,7 km/h (4 Bft)
31.08.2014 15:30 17,7 C 15,6 C 84 % 1014,0 hPa 0,0 l/m 0 min 0 min 0,0 UV-I 177 W/m 24,7 km/h (4 Bft)
31.08.2014 15:32 17,7 C 15,6 C 84 % 1014,0 hPa 0,0 l/m 0 min 0 min 0,0 UV-I 134 W/m 0,0 km/h (0 Bft)
31.08.2014 15:34 17,7 C 15,6 C 84 % 1013,9 hPa 0,0 l/m 0 min 0 min 0,0 UV-I 118 W/m 14,2 km/h (3 Bft)
31.08.2014 15:36 17,7 C 15,6 C 83 % 1013,9 hPa 0,0 l/m 0 min 0 min 0,0 UV-I 103 W/m 14,2 km/h (3 Bft)
31.08.2014 15:38 17,6 C 15,0 C 83 % 1014,0 hPa 0,0 l/m 0 min 0 min 0,0 UV-I 78 W/m 21,3 km/h (4 Bft)
31.08.2014 15:40 17,6 C 15,0 C 84 % 1014,1 hPa 0,0 l/m 0 min 0 min 0,0 UV-I 49 W/m 21,3 km/h (4 Bft)
31.08.2014 15:42 17,6 C 15,0 C 84 % 1014,2 hPa 0,0 l/m 0 min 2 min 0,0 UV-I 29 W/m 38,9 km/h (6 Bft)
31.08.2014 15:44 17,6 C 14,4 C 84 % 1014,4 hPa 0,2 l/m 0 min 2 min 0,0 UV-I 17 W/m 38,9 km/h (6 Bft)
31.08.2014 15:46 17,5 C 13,9 C 84 % 1014,5 hPa 0,0 l/m 0 min 2 min 0,0 UV-I 14 W/m 42,4 km/h (6 Bft)
31.08.2014 15:48 17,4 C 13,3 C 84 % 1014,4 hPa 0,0 l/m 0 min 2 min 0,0 UV-I 17 W/m 21,3 km/h (4 Bft)
31.08.2014 15:50 17,2 C 12,8 C 83 % 1014,5 hPa 0,2 l/m 0 min 2 min 0,0 UV-I 12 W/m 49,5 km/h (6 Bft)
31.08.2014 15:52 16,9 C 12,8 C 83 % 1014,7 hPa 0,4 l/m 0 min 2 min 0,0 UV-I 9 W/m 49,5 km/h (6 Bft)
31.08.2014 15:54 16,7 C 12,2 C 83 % 1014,7 hPa 0,6 l/m 0 min 2 min 0,0 UV-I 9 W/m 31,7 km/h (5 Bft)
31.08.2014 15:56 16,4 C 12,2 C 84 % 1014,6 hPa 0,4 l/m 0 min 2 min 0,0 UV-I 10 W/m 35,4 km/h (5 Bft)
31.08.2014 15:58 16,2 C 11,7 C 83 % 1014,7 hPa 1,2 l/m 0 min 2 min 0,0 UV-I 11 W/m 42,4 km/h (6 Bft)
31.08.2014 16:00 15,9 C 11,1 C 83 % 1014,5 hPa 1,4 l/m 0 min 2 min 0,0 UV-I 14 W/m 38,9 km/h (6 Bft)
31.08.2014 16:03 15,9 C 11,1 C 83 % 1014,4 hPa 0,0 l/m 0 min 2 min 0,0 UV-I 14 W/m 28,2 km/h (4 Bft)
31.08.2014 16:04 15,9 C 11,1 C 83 % 1014,4 hPa 0,0 l/m 0 min 1 min 0,0 UV-I 14 W/m 28,2 km/h (4 Bft)
31.08.2014 16:06 15,9 C 11,7 C 83 % 1014,4 hPa 0,0 l/m 0 min 2 min 0,0 UV-I 14 W/m 28,2 km/h (4 Bft)
31.08.2014 16:08 15,9 C 11,7 C 83 % 1014,5 hPa 0,0 l/m 0 min 2 min 0,0 UV-I 14 W/m 28,2 km/h (4 Bft)
31.08.2014 16:10 15,9 C 11,7 C 83 % 1014,4 hPa 0,0 l/m 0 min 2 min 0,0 UV-I 14 W/m 28,2 km/h (4 Bft)
31.08.2014 16:12 15,9 C 11,7 C 83 % 1014,4 hPa 0,0 l/m 0 min 2 min 0,0 UV-I 14 W/m 28,2 km/h (4 Bft)
31.08.2014 16:14 15,9 C 11,7 C 83 % 1014,3 hPa 0,0 l/m 0 min 2 min 0,0 UV-I 14 W/m 28,2 km/h (4 Bft)
31.08.2014 16:16 15,9 C 11,7 C 83 % 1014,3 hPa 0,0 l/m 0 min 2 min 0,0 UV-I 14 W/m 28,2 km/h (4 Bft)
31.08.2014 16:18 15,9 C 11,7 C 83 % 1014,3 hPa 0,0 l/m 0 min 2 min 0,0 UV-I 14 W/m 28,2 km/h (4 Bft)
31.08.2014 16:19 16,0 C 12,2 C 85 % 1014,3 hPa 0,0 l/m 0 min 0 min 0,0 UV-I 0 W/m 0,0 km/h (0 Bft)
31.08.2014 16:20 16,0 C 12,2 C 85 % 1014,3 hPa 0,0 l/m 0 min 0 min 0,0 UV-I 0 W/m 0,0 km/h (0 Bft)
31.08.2014 16:21 16,0 C 12,2 C 85 % 1014,3 hPa 0,0 l/m 0 min 0 min 0,0 UV-I 0 W/m 0,0 km/h (0 Bft)
31.08.2014 16:22 16,0 C 12,2 C 85 % 1014,4 hPa 0,0 l/m 0 min 0 min 0,0 UV-I 0 W/m 0,0 km/h (0 Bft)
31.08.2014 16:23 16,0 C 12,2 C 85 % 1014,4 hPa 0,0 l/m 0 min 0 min 0,0 UV-I 0 W/m 0,0 km/h (0 Bft)
31.08.2014 16:24 16,0 C 12,2 C 85 % 1014,4 hPa 0,0 l/m 0 min 0 min 0,0 UV-I 0 W/m 0,0 km/h (0 Bft)
31.08.2014 16:25 16,0 C 12,2 C 85 % 1014,4 hPa 0,0 l/m 0 min 0 min 0,0 UV-I 0 W/m 0,0 km/h (0 Bft)
31.08.2014 16:26 16,0 C 12,2 C 85 % 1014,4 hPa 0,0 l/m 0 min 0 min 0,0 UV-I 0 W/m 0,0 km/h (0 Bft)
31.08.2014 16:27 16,0 C 12,2 C 85 % 1014,4 hPa 0,0 l/m 0 min 0 min 0,0 UV-I 0 W/m 0,0 km/h (0 Bft)
31.08.2014 16:28 16,0 C 12,2 C 85 % 1014,5 hPa 0,0 l/m 0 min 0 min 0,0 UV-I 0 W/m 0,0 km/h (0 Bft)
31.08.2014 16:29 16,0 C 12,2 C 85 % 1014,5 hPa 0,0 l/m 0 min 0 min 0,0 UV-I 0 W/m 0,0 km/h (0 Bft)
31.08.2014 16:30 16,0 C 12,8 C 85 % 1014,5 hPa 0,0 l/m 0 min 0 min 0,0 UV-I 0 W/m 0,0 km/h (0 Bft)
31.08.2014 16:31 16,0 C 12,8 C 85 % 1014,5 hPa 0,0 l/m 0 min 0 min 0,0 UV-I 0 W/m 0,0 km/h (0 Bft)
31.08.2014 16:32 16,0 C 12,8 C 85 % 1014,5 hPa 0,0 l/m 0 min 0 min 0,0 UV-I 0 W/m 0,0 km/h (0 Bft)
31.08.2014 16:33 16,0 C 12,8 C 85 % 1014,5 hPa 0,0 l/m 0 min 0 min 0,0 UV-I 0 W/m 0,0 km/h (0 Bft)
31.08.2014 16:34 16,0 C 12,8 C 85 % 1014,6 hPa 0,0 l/m 0 min 0 min 0,0 UV-I 0 W/m 0,0 km/h (0 Bft)
31.08.2014 16:35 16,0 C 12,8 C 85 % 1014,6 hPa 0,0 l/m 0 min 0 min 0,0 UV-I 0 W/m 0,0 km/h (0 Bft)
31.08.2014 16:36 16,0 C 12,8 C 85 % 1014,5 hPa 0,0 l/m 0 min 0 min 0,0 UV-I 0 W/m 0,0 km/h (0 Bft)
31.08.2014 16:37 16,0 C 12,8 C 85 % 1014,5 hPa 0,0 l/m 0 min 0 min 0,0 UV-I 0 W/m 0,0 km/h (0 Bft)
31.08.2014 16:38 16,0 C 12,8 C 85 % 1014,6 hPa 0,0 l/m 0 min 0 min 0,0 UV-I 0 W/m 0,0 km/h (0 Bft)
31.08.2014 16:39 16,0 C 12,8 C 85 % 1014,6 hPa 0,0 l/m 0 min 0 min 0,0 UV-I 0 W/m 0,0 km/h (0 Bft)
31.08.2014 16:40 16,0 C 12,8 C 85 % 1014,6 hPa 0,0 l/m 0 min 0 min 0,0 UV-I 0 W/m 0,0 km/h (0 Bft)
31.08.2014 16:41 16,0 C 12,8 C 85 % 1014,6 hPa 0,0 l/m 0 min 0 min 0,0 UV-I 0 W/m 0,0 km/h (0 Bft)
31.08.2014 16:42 16,0 C 12,8 C 85 % 1014,6 hPa 0,0 l/m 0 min 0 min 0,0 UV-I 0 W/m 0,0 km/h (0 Bft)
31.08.2014 16:43 16,0 C 12,8 C 85 % 1014,5 hPa 0,0 l/m 0 min 0 min 0,0 UV-I 0 W/m 0,0 km/h (0 Bft)
31.08.2014 16:44 16,0 C 12,8 C 85 % 1014,5 hPa 0,0 l/m 0 min 0 min 0,0 UV-I 0 W/m 0,0 km/h (0 Bft)
31.08.2014 16:45 16,0 C 12,8 C 85 % 1014,5 hPa 0,0 l/m 0 min 0 min 0,0 UV-I 0 W/m 0,0 km/h (0 Bft)
31.08.2014 16:46 16,0 C 12,8 C 85 % 1014,4 hPa 0,0 l/m 0 min 0 min 0,0 UV-I 0 W/m 0,0 km/h (0 Bft)
31.08.2014 16:47 16,0 C 12,2 C 85 % 1014,4 hPa 0,0 l/m 0 min 0 min 0,0 UV-I 0 W/m 0,0 km/h (0 Bft)
31.08.2014 16:48 16,0 C 12,2 C 85 % 1014,4 hPa 0,0 l/m 0 min 0 min 0,0 UV-I 0 W/m 0,0 km/h (0 Bft)
31.08.2014 16:49 16,0 C 12,8 C 85 % 1014,5 hPa 0,0 l/m 0 min 0 min 0,0 UV-I 0 W/m 0,0 km/h (0 Bft)
31.08.2014 16:50 16,0 C 12,8 C 85 % 1014,5 hPa 0,0 l/m 0 min 0 min 0,0 UV-I 0 W/m 0,0 km/h (0 Bft)
31.08.2014 16:51 16,0 C 12,8 C 85 % 1014,5 hPa 0,0 l/m 0 min 0 min 0,0 UV-I 0 W/m 0,0 km/h (0 Bft)
31.08.2014 16:52 16,0 C 12,2 C 85 % 1014,5 hPa 0,0 l/m 0 min 0 min 0,0 UV-I 0 W/m 0,0 km/h (0 Bft)
31.08.2014 16:53 16,0 C 12,8 C 85 % 1014,5 hPa 0,0 l/m 0 min 0 min 0,0 UV-I 0 W/m 0,0 km/h (0 Bft)
31.08.2014 16:54 16,0 C 12,8 C 85 % 1014,5 hPa 0,0 l/m 0 min 0 min 0,0 UV-I 0 W/m 0,0 km/h (0 Bft)
31.08.2014 16:55 16,0 C 12,8 C 85 % 1014,5 hPa 0,0 l/m 0 min 0 min 0,0 UV-I 0 W/m 0,0 km/h (0 Bft)
31.08.2014 16:56 16,0 C 12,8 C 85 % 1014,5 hPa 0,0 l/m 0 min 0 min 0,0 UV-I 0 W/m 0,0 km/h (0 Bft)
31.08.2014 16:57 16,0 C 12,8 C 85 % 1014,6 hPa 0,0 l/m 0 min 0 min 0,0 UV-I 0 W/m 0,0 km/h (0 Bft)
31.08.2014 16:58 16,0 C 12,8 C 85 % 1014,6 hPa 0,0 l/m 0 min 0 min 0,0 UV-I 0 W/m 0,0 km/h (0 Bft)
31.08.2014 16:59 16,0 C 12,8 C 85 % 1014,5 hPa 0,0 l/m 0 min 0 min 0,0 UV-I 0 W/m 0,0 km/h (0 Bft)
31.08.2014 17:00 16,0 C 12,8 C 85 % 1014,6 hPa 0,0 l/m 0 min 0 min 0,0 UV-I 0 W/m 0,0 km/h (0 Bft)
31.08.2014 17:01 16,0 C 12,8 C 85 % 1014,6 hPa 0,0 l/m 0 min 0 min 0,0 UV-I 0 W/m 0,0 km/h (0 Bft)
31.08.2014 17:02 16,0 C 12,8 C 85 % 1014,6 hPa 0,0 l/m 0 min 0 min 0,0 UV-I 0 W/m 0,0 km/h (0 Bft)
31.08.2014 17:03 16,0 C 12,8 C 85 % 1014,7 hPa 0,0 l/m 0 min 0 min 0,0 UV-I 0 W/m 0,0 km/h (0 Bft)
31.08.2014 17:04 16,0 C 12,8 C 85 % 1014,6 hPa 0,0 l/m 0 min 0 min 0,0 UV-I 0 W/m 0,0 km/h (0 Bft)
31.08.2014 17:05 16,0 C 12,8 C 85 % 1014,6 hPa 0,0 l/m 0 min 0 min 0,0 UV-I 0 W/m 0,0 km/h (0 Bft)
31.08.2014 17:06 16,0 C 12,8 C 85 % 1014,7 hPa 0,0 l/m 0 min 0 min 0,0 UV-I 0 W/m 0,0 km/h (0 Bft)
31.08.2014 17:07 16,0 C 12,8 C 85 % 1014,7 hPa 0,0 l/m 0 min 0 min 0,0 UV-I 0 W/m 0,0 km/h (0 Bft)
31.08.2014 17:08 16,0 C 12,8 C 85 % 1014,7 hPa 0,0 l/m 0 min 0 min 0,0 UV-I 0 W/m 0,0 km/h (0 Bft)
31.08.2014 17:09 16,0 C 12,8 C 85 % 1014,7 hPa 0,0 l/m 0 min 0 min 0,0 UV-I 0 W/m 0,0 km/h (0 Bft)
31.08.2014 17:10 16,0 C 12,8 C 85 % 1014,8 hPa 0,0 l/m 0 min 0 min 0,0 UV-I 0 W/m 0,0 km/h (0 Bft)
31.08.2014 17:11 16,0 C 12,8 C 85 % 1014,7 hPa 0,0 l/m 0 min 0 min 0,0 UV-I 0 W/m 0,0 km/h (0 Bft)
31.08.2014 17:12 16,0 C 12,8 C 85 % 1014,8 hPa 0,0 l/m 0 min 0 min 0,0 UV-I 0 W/m 0,0 km/h (0 Bft)
31.08.2014 17:13 16,0 C 12,8 C 85 % 1014,7 hPa 0,0 l/m 0 min 0 min 0,0 UV-I 0 W/m 0,0 km/h (0 Bft)
31.08.2014 17:14 16,0 C 12,8 C 85 % 1014,7 hPa 0,0 l/m 0 min 0 min 0,0 UV-I 0 W/m 0,0 km/h (0 Bft)
31.08.2014 17:15 16,0 C 12,8 C 85 % 1014,7 hPa 0,0 l/m 0 min 0 min 0,0 UV-I 0 W/m 0,0 km/h (0 Bft)
31.08.2014 17:16 16,0 C 12,8 C 85 % 1014,7 hPa 0,0 l/m 0 min 0 min 0,0 UV-I 0 W/m 0,0 km/h (0 Bft)
31.08.2014 17:17 16,0 C 12,8 C 85 % 1014,7 hPa 0,0 l/m 0 min 0 min 0,0 UV-I 0 W/m 0,0 km/h (0 Bft)
31.08.2014 17:18 16,0 C 12,8 C 85 % 1014,7 hPa 0,0 l/m 0 min 0 min 0,0 UV-I 0 W/m 0,0 km/h (0 Bft)
31.08.2014 17:19 16,0 C 12,8 C 85 % 1014,6 hPa 0,0 l/m 0 min 0 min 0,0 UV-I 0 W/m 0,0 km/h (0 Bft)
31.08.2014 17:20 16,0 C 12,8 C 85 % 1014,7 hPa 0,0 l/m 0 min 0 min 0,0 UV-I 0 W/m 0,0 km/h (0 Bft)
31.08.2014 17:21 16,0 C 12,8 C 85 % 1014,6 hPa 0,0 l/m 0 min 0 min 0,0 UV-I 0 W/m 0,0 km/h (0 Bft)
31.08.2014 17:22 16,0 C 13,3 C 85 % 1014,7 hPa 0,0 l/m 0 min 0 min 0,0 UV-I 0 W/m 0,0 km/h (0 Bft)
31.08.2014 17:23 16,0 C 13,3 C 85 % 1014,6 hPa 0,0 l/m 0 min 0 min 0,0 UV-I 0 W/m 0,0 km/h (0 Bft)
31.08.2014 17:24 16,0 C 13,3 C 85 % 1014,6 hPa 0,0 l/m 0 min 0 min 0,0 UV-I 0 W/m 0,0 km/h (0 Bft)
31.08.2014 17:25 16,0 C 13,3 C 85 % 1014,7 hPa 0,0 l/m 0 min 0 min 0,0 UV-I 0 W/m 0,0 km/h (0 Bft)
31.08.2014 17:26 16,0 C 13,3 C 85 % 1014,7 hPa 0,0 l/m 0 min 0 min 0,0 UV-I 0 W/m 0,0 km/h (0 Bft)
31.08.2014 17:27 16,0 C 13,3 C 85 % 1014,6 hPa 0,0 l/m 0 min 0 min 0,0 UV-I 0 W/m 0,0 km/h (0 Bft)
31.08.2014 17:28 16,0 C 13,3 C 85 % 1014,6 hPa 0,0 l/m 0 min 0 min 0,0 UV-I 0 W/m 0,0 km/h (0 Bft)
31.08.2014 17:29 16,0 C 13,3 C 85 % 1014,6 hPa 0,0 l/m 0 min 0 min 0,0 UV-I 0 W/m 0,0 km/h (0 Bft)
31.08.2014 17:30 16,0 C 13,3 C 85 % 1014,6 hPa 0,0 l/m 0 min 0 min 0,0 UV-I 0 W/m 0,0 km/h (0 Bft)
31.08.2014 17:31 16,0 C 13,3 C 85 % 1014,6 hPa 0,0 l/m 0 min 0 min 0,0 UV-I 0 W/m 0,0 km/h (0 Bft)
31.08.2014 17:32 16,0 C 13,3 C 85 % 1014,6 hPa 0,0 l/m 0 min 0 min 0,0 UV-I 0 W/m 0,0 km/h (0 Bft)
31.08.2014 17:33 16,0 C 13,9 C 85 % 1014,6 hPa 0,0 l/m 0 min 0 min 0,0 UV-I 0 W/m 0,0 km/h (0 Bft)
31.08.2014 17:34 16,0 C 13,9 C 85 % 1014,7 hPa 0,0 l/m 0 min 0 min 0,0 UV-I 0 W/m 0,0 km/h (0 Bft)
31.08.2014 17:35 16,0 C 13,9 C 85 % 1014,6 hPa 0,0 l/m 0 min 0 min 0,0 UV-I 0 W/m 0,0 km/h (0 Bft)
31.08.2014 17:36 16,0 C 13,9 C 85 % 1014,7 hPa 0,0 l/m 0 min 0 min 0,0 UV-I 0 W/m 0,0 km/h (0 Bft)
31.08.2014 17:37 16,0 C 13,9 C 85 % 1014,7 hPa 0,0 l/m 0 min 0 min 0,0 UV-I 0 W/m 0,0 km/h (0 Bft)
31.08.2014 17:38 16,0 C 13,9 C 85 % 1014,7 hPa 0,0 l/m 0 min 0 min 0,0 UV-I 0 W/m 0,0 km/h (0 Bft)
31.08.2014 17:39 16,0 C 13,9 C 85 % 1014,7 hPa 0,0 l/m 0 min 0 min 0,0 UV-I 0 W/m 0,0 km/h (0 Bft)
31.08.2014 17:40 16,0 C 13,9 C 85 % 1014,7 hPa 0,0 l/m 0 min 0 min 0,0 UV-I 0 W/m 0,0 km/h (0 Bft)
31.08.2014 17:41 16,0 C 13,9 C 85 % 1014,7 hPa 0,0 l/m 0 min 0 min 0,0 UV-I 0 W/m 0,0 km/h (0 Bft)
31.08.2014 17:42 16,0 C 13,9 C 85 % 1014,7 hPa 0,0 l/m 0 min 0 min 0,0 UV-I 0 W/m 0,0 km/h (0 Bft)
31.08.2014 17:43 16,0 C 13,9 C 85 % 1014,6 hPa 0,0 l/m 0 min 0 min 0,0 UV-I 0 W/m 0,0 km/h (0 Bft)
31.08.2014 17:44 16,0 C 13,9 C 85 % 1014,6 hPa 0,0 l/m 0 min 0 min 0,0 UV-I 0 W/m 0,0 km/h (0 Bft)
31.08.2014 17:45 16,0 C 13,9 C 85 % 1014,7 hPa 0,0 l/m 0 min 0 min 0,0 UV-I 0 W/m 0,0 km/h (0 Bft)
31.08.2014 17:46 16,0 C 13,9 C 85 % 1014,7 hPa 0,0 l/m 0 min 0 min 0,0 UV-I 0 W/m 0,0 km/h (0 Bft)
31.08.2014 17:47 16,0 C 13,9 C 85 % 1014,7 hPa 0,0 l/m 0 min 0 min 0,0 UV-I 0 W/m 0,0 km/h (0 Bft)
31.08.2014 17:48 16,0 C 13,9 C 85 % 1014,7 hPa 0,0 l/m 0 min 0 min 0,0 UV-I 0 W/m 0,0 km/h (0 Bft)
31.08.2014 17:49 15,0 C 13,9 C 85 % 1014,6 hPa 0,0 l/m 0 min 0 min 0,0 UV-I 0 W/m 0,0 km/h (0 Bft)
31.08.2014 17:50 15,0 C 13,9 C 85 % 1014,7 hPa 0,0 l/m 0 min 0 min 0,0 UV-I 0 W/m 0,0 km/h (0 Bft)
31.08.2014 17:51 14,6 C 13,9 C 85 % 1014,6 hPa 0,0 l/m 0 min 0 min 0,0 UV-I 0 W/m 3,5 km/h (1 Bft)
31.08.2014 17:54 14,7 C 13,9 C 95 % 1014,7 hPa 0,0 l/m 0 min 0 min 0,0 UV-I 0 W/m 10,7 km/h (2 Bft)
31.08.2014 17:56 14,7 C 13,9 C 95 % 1014,7 hPa 0,0 l/m 0 min 0 min 0,0 UV-I 0 W/m 14,2 km/h (3 Bft)
31.08.2014 17:58 14,7 C 13,9 C 95 % 1014,6 hPa 0,0 l/m 0 min 0 min 0,0 UV-I 0 W/m 14,2 km/h (3 Bft)
31.08.2014 18:00 14,7 C 13,9 C 95 % 1014,6 hPa 0,0 l/m 0 min 0 min 0,0 UV-I 0 W/m 10,7 km/h (2 Bft)
31.08.2014 18:02 14,8 C 14,4 C 95 % 1014,6 hPa 0,0 l/m 0 min 0 min 0,0 UV-I 0 W/m 10,7 km/h (2 Bft)
31.08.2014 18:06 14,9 C 14,4 C 96 % 1014,6 hPa 0,0 l/m 0 min 0 min 0,0 UV-I 0 W/m 10,7 km/h (2 Bft)
31.08.2014 18:08 14,9 C 14,4 C 96 % 1014,6 hPa 0,0 l/m 0 min 0 min 0,0 UV-I 0 W/m 7,1 km/h (2 Bft)
31.08.2014 18:10 14,9 C 15,0 C 96 % 1014,6 hPa 0,0 l/m 0 min 0 min 0,0 UV-I 0 W/m 10,7 km/h (2 Bft)
31.08.2014 18:12 15,1 C 15,0 C 96 % 1014,6 hPa 0,0 l/m 0 min 0 min 0,0 UV-I 0 W/m 3,5 km/h (1 Bft)
31.08.2014 18:14 15,1 C 15,0 C 96 % 1014,6 hPa 0,0 l/m 0 min 0 min 0,0 UV-I 0 W/m 10,7 km/h (2 Bft)
31.08.2014 18:16 15,1 C 15,0 C 96 % 1014,6 hPa 0,0 l/m 0 min 0 min 0,0 UV-I 0 W/m 3,5 km/h (1 Bft)
31.08.2014 18:18 15,2 C 15,0 C 96 % 1014,7 hPa 0,0 l/m 0 min 0 min 0,0 UV-I 0 W/m 0,0 km/h (0 Bft)
31.08.2014 18:20 15,2 C 15,0 C 96 % 1014,6 hPa 0,0 l/m 0 min 0 min 0,0 UV-I 0 W/m 0,0 km/h (0 Bft)
31.08.2014 18:22 15,2 C 15,0 C 96 % 1014,6 hPa 0,0 l/m 0 min 0 min 0,0 UV-I 0 W/m 14,2 km/h (3 Bft)
31.08.2014 18:24 15,2 C 14,4 C 96 % 1014,6 hPa 0,0 l/m 0 min 0 min 0,0 UV-I 0 W/m 10,7 km/h (2 Bft)
31.08.2014 18:26 15,3 C 14,4 C 96 % 1014,5 hPa 0,0 l/m 0 min 0 min 0,0 UV-I 0 W/m 10,7 km/h (2 Bft)
31.08.2014 18:28 15,3 C 14,4 C 96 % 1014,6 hPa 0,0 l/m 0 min 0 min 0,0 UV-I 0 W/m 0,0 km/h (0 Bft)
31.08.2014 18:30 15,3 C 14,4 C 96 % 1014,5 hPa 0,0 l/m 0 min 0 min 0,0 UV-I 0 W/m 3,5 km/h (1 Bft)
31.08.2014 18:32 15,3 C 14,4 C 96 % 1014,6 hPa 0,0 l/m 0 min 0 min 0,0 UV-I 0 W/m 0,0 km/h (0 Bft)
31.08.2014 18:34 15,4 C 14,4 C 96 % 1014,5 hPa 0,0 l/m 0 min 0 min 0,0 UV-I 0 W/m 0,0 km/h (0 Bft)
31.08.2014 18:36 15,4 C 14,4 C 96 % 1014,5 hPa 0,0 l/m 0 min 0 min 0,0 UV-I 0 W/m 0,0 km/h (0 Bft)
31.08.2014 18:38 15,4 C 14,4 C 96 % 1014,6 hPa 0,0 l/m 0 min 0 min 0,0 UV-I 0 W/m 0,0 km/h (0 Bft)
31.08.2014 18:40 15,4 C 14,4 C 96 % 1014,6 hPa 0,0 l/m 0 min 0 min 0,0 UV-I 0 W/m 0,0 km/h (0 Bft)
31.08.2014 18:42 15,4 C 14,4 C 96 % 1014,6 hPa 0,0 l/m 0 min 0 min 0,0 UV-I 0 W/m 3,5 km/h (1 Bft)
31.08.2014 18:44 15,5 C 14,4 C 96 % 1014,6 hPa 0,0 l/m 0 min 0 min 0,0 UV-I 0 W/m 10,7 km/h (2 Bft)
31.08.2014 18:46 15,5 C 13,9 C 96 % 1014,7 hPa 0,0 l/m 0 min 0 min 0,0 UV-I 0 W/m 0,0 km/h (0 Bft)
31.08.2014 18:48 15,5 C 13,9 C 96 % 1014,7 hPa 0,0 l/m 0 min 0 min 0,0 UV-I 0 W/m 0,0 km/h (0 Bft)
31.08.2014 18:50 15,5 C 13,9 C 96 % 1014,7 hPa 0,0 l/m 0 min 0 min 0,0 UV-I 0 W/m 0,0 km/h (0 Bft)
31.08.2014 18:52 15,5 C 13,9 C 96 % 1014,8 hPa 0,0 l/m 0 min 0 min 0,0 UV-I 0 W/m 3,5 km/h (1 Bft)
31.08.2014 18:54 15,5 C 13,9 C 96 % 1014,8 hPa 0,0 l/m 0 min 0 min 0,0 UV-I 0 W/m 10,7 km/h (2 Bft)
31.08.2014 18:56 15,5 C 13,9 C 96 % 1014,9 hPa 0,0 l/m 0 min 0 min 0,0 UV-I 0 W/m 3,5 km/h (1 Bft)
31.08.2014 18:58 15,5 C 13,9 C 96 % 1014,8 hPa 0,0 l/m 0 min 0 min 0,0 UV-I 0 W/m 0,0 km/h (0 Bft)
31.08.2014 19:00 15,5 C 13,9 C 96 % 1014,8 hPa 0,0 l/m 0 min 0 min 0,0 UV-I 0 W/m 0,0 km/h (0 Bft)
31.08.2014 19:02 15,5 C 13,9 C 96 % 1014,9 hPa 0,0 l/m 0 min 0 min 0,0 UV-I 0 W/m 0,0 km/h (0 Bft)
31.08.2014 19:04 15,4 C 13,9 C 96 % 1014,9 hPa 0,0 l/m 0 min 0 min 0,0 UV-I 0 W/m 3,5 km/h (1 Bft)
31.08.2014 19:08 15,4 C 13,9 C 96 % 1014,9 hPa 0,0 l/m 0 min 0 min 0,0 UV-I 0 W/m 14,2 km/h (3 Bft)
31.08.2014 19:10 15,4 C 13,9 C 96 % 1015,0 hPa 0,0 l/m 0 min 0 min 0,0 UV-I 0 W/m 17,7 km/h (3 Bft)
31.08.2014 19:12 15,4 C 13,9 C 96 % 1015,0 hPa 0,0 l/m 0 min 0 min 0,0 UV-I 0 W/m 14,2 km/h (3 Bft)
31.08.2014 19:14 15,3 C 13,9 C 95 % 1014,9 hPa 0,0 l/m 0 min 0 min 0,0 UV-I 0 W/m 10,7 km/h (2 Bft)
31.08.2014 19:16 15,3 C 13,9 C 95 % 1015,0 hPa 0,0 l/m 0 min 0 min 0,0 UV-I 0 W/m 7,1 km/h (2 Bft)
31.08.2014 19:18 15,3 C 13,9 C 95 % 1015,0 hPa 0,0 l/m 0 min 0 min 0,0 UV-I 0 W/m 3,5 km/h (1 Bft)
31.08.2014 19:20 15,3 C 13,9 C 95 % 1015,1 hPa 0,0 l/m 0 min 0 min 0,0 UV-I 0 W/m 10,7 km/h (2 Bft)
31.08.2014 19:22 15,2 C 13,9 C 95 % 1015,0 hPa 0,0 l/m 0 min 0 min 0,0 UV-I 0 W/m 3,5 km/h (1 Bft)
31.08.2014 19:24 15,2 C 13,9 C 95 % 1015,0 hPa 0,0 l/m 0 min 0 min 0,0 UV-I 0 W/m 3,5 km/h (1 Bft)
31.08.2014 19:26 15,2 C 13,9 C 95 % 1015,1 hPa 0,0 l/m 0 min 0 min 0,0 UV-I 0 W/m 10,7 km/h (2 Bft)
31.08.2014 19:27 15,2 C 13,9 C 95 % 1015,1 hPa 0,0 l/m 0 min 0 min 0,0 UV-I 0 W/m 14,2 km/h (3 Bft)
31.08.2014 19:28 15,1 C 13,3 C 95 % 1015,1 hPa 0,0 l/m 0 min 0 min 0,0 UV-I 0 W/m 3,5 km/h (1 Bft)
31.08.2014 19:29 15,1 C 13,3 C 95 % 1015,1 hPa 0,0 l/m 0 min 0 min 0,0 UV-I 0 W/m 10,7 km/h (2 Bft)
31.08.2014 19:30 15,1 C 13,3 C 95 % 1015,2 hPa 0,0 l/m 0 min 0 min 0,0 UV-I 0 W/m 10,7 km/h (2 Bft)
31.08.2014 19:31 15,0 C 13,3 C 95 % 1015,2 hPa 0,0 l/m 0 min 0 min 0,0 UV-I 0 W/m 7,1 km/h (2 Bft)
31.08.2014 19:32 15,0 C 13,3 C 95 % 1015,2 hPa 0,0 l/m 0 min 0 min 0,0 UV-I 0 W/m 7,1 km/h (2 Bft)
31.08.2014 19:33 15,0 C 13,3 C 94 % 1015,1 hPa 0,0 l/m 0 min 0 min 0,0 UV-I 0 W/m 14,2 km/h (3 Bft)
31.08.2014 19:34 15,0 C 13,3 C 94 % 1015,1 hPa 0,0 l/m 0 min 0 min 0,0 UV-I 0 W/m 0,0 km/h (0 Bft)
31.08.2014 19:35 14,9 C 12,8 C 94 % 1015,1 hPa 0,0 l/m 0 min 0 min 0,0 UV-I 0 W/m 0,0 km/h (0 Bft)
31.08.2014 19:36 14,9 C 12,8 C 94 % 1015,1 hPa 0,0 l/m 0 min 0 min 0,0 UV-I 0 W/m 3,5 km/h (1 Bft)
31.08.2014 19:37 14,9 C 12,8 C 94 % 1015,2 hPa 0,0 l/m 0 min 0 min 0,0 UV-I 0 W/m 0,0 km/h (0 Bft)
31.08.2014 19:38 14,9 C 12,8 C 94 % 1015,1 hPa 0,0 l/m 0 min 0 min 0,0 UV-I 0 W/m 0,0 km/h (0 Bft)
31.08.2014 19:39 14,9 C 12,8 C 94 % 1015,2 hPa 0,0 l/m 0 min 0 min 0,0 UV-I 0 W/m 0,0 km/h (0 Bft)
31.08.2014 19:40 14,9 C 12,8 C 94 % 1015,1 hPa 0,0 l/m 0 min 0 min 0,0 UV-I 0 W/m 0,0 km/h (0 Bft)
31.08.2014 19:41 14,9 C 12,8 C 94 % 1015,2 hPa 0,0 l/m 0 min 0 min 0,0 UV-I 0 W/m 0,0 km/h (0 Bft)
31.08.2014 19:42 14,9 C 12,8 C 94 % 1015,2 hPa 0,0 l/m 0 min 0 min 0,0 UV-I 0 W/m 0,0 km/h (0 Bft)
31.08.2014 19:43 14,9 C 12,8 C 94 % 1015,2 hPa 0,0 l/m 0 min 0 min 0,0 UV-I 0 W/m 0,0 km/h (0 Bft)
31.08.2014 19:44 14,9 C 12,8 C 94 % 1015,2 hPa 0,0 l/m 0 min 0 min 0,0 UV-I 0 W/m 0,0 km/h (0 Bft)
31.08.2014 19:45 14,9 C 12,8 C 94 % 1015,2 hPa 0,0 l/m 0 min 0 min 0,0 UV-I 0 W/m 0,0 km/h (0 Bft)
31.08.2014 19:46 14,9 C 12,8 C 94 % 1015,2 hPa 0,0 l/m 0 min 0 min 0,0 UV-I 0 W/m 0,0 km/h (0 Bft)
31.08.2014 19:47 14,9 C 12,8 C 94 % 1015,2 hPa 0,0 l/m 0 min 0 min 0,0 UV-I 0 W/m 0,0 km/h (0 Bft)
31.08.2014 19:48 14,8 C 12,8 C 94 % 1015,2 hPa 0,0 l/m 0 min 0 min 0,0 UV-I 0 W/m 0,0 km/h (0 Bft)
31.08.2014 19:49 14,8 C 12,8 C 94 % 1015,2 hPa 0,0 l/m 0 min 0 min 0,0 UV-I 0 W/m 0,0 km/h (0 Bft)
31.08.2014 19:50 14,8 C 12,8 C 94 % 1015,2 hPa 0,0 l/m 0 min 0 min 0,0 UV-I 0 W/m 0,0 km/h (0 Bft)
31.08.2014 19:51 14,8 C 12,2 C 94 % 1015,2 hPa 0,0 l/m 0 min 0 min 0,0 UV-I 0 W/m 0,0 km/h (0 Bft)
31.08.2014 19:52 14,8 C 12,2 C 94 % 1015,2 hPa 0,0 l/m 0 min 0 min 0,0 UV-I 0 W/m 0,0 km/h (0 Bft)
31.08.2014 19:54 14,8 C 12,2 C 94 % 1015,2 hPa 0,0 l/m 0 min 0 min 0,0 UV-I 0 W/m 0,0 km/h (0 Bft)
31.08.2014 19:56 14,8 C 12,2 C 94 % 1015,3 hPa 0,0 l/m 0 min 0 min 0,0 UV-I 0 W/m 0,0 km/h (0 Bft)
31.08.2014 19:58 14,7 C 12,2 C 94 % 1015,3 hPa 0,0 l/m 0 min 0 min 0,0 UV-I 0 W/m 0,0 km/h (0 Bft)
31.08.2014 20:00 14,7 C 12,2 C 94 % 1015,4 hPa 0,0 l/m 0 min 0 min 0,0 UV-I 0 W/m 3,5 km/h (1 Bft)
31.08.2014 20:02 14,7 C 12,2 C 94 % 1015,4 hPa 0,0 l/m 0 min 0 min 0,0 UV-I 0 W/m 3,5 km/h (1 Bft)
31.08.2014 20:04 14,7 C 12,2 C 94 % 1015,4 hPa 0,0 l/m 0 min 0 min 0,0 UV-I 0 W/m 0,0 km/h (0 Bft)
31.08.2014 20:06 14,6 C 12,2 C 93 % 1015,4 hPa 0,0 l/m 0 min 0 min 0,0 UV-I 0 W/m 0,0 km/h (0 Bft)
31.08.2014 20:08 14,6 C 12,2 C 93 % 1015,5 hPa 0,0 l/m 0 min 0 min 0,0 UV-I 0 W/m 0,0 km/h (0 Bft)
31.08.2014 20:10 14,6 C 12,2 C 93 % 1015,5 hPa 0,4 l/m 0 min 0 min 0,0 UV-I 0 W/m 0,0 km/h (0 Bft)
31.08.2014 20:12 14,5 C 12,2 C 93 % 1015,5 hPa 0,0 l/m 0 min 0 min 0,0 UV-I 0 W/m 0,0 km/h (0 Bft)
31.08.2014 20:14 14,5 C 11,7 C 93 % 1015,5 hPa 0,0 l/m 0 min 0 min 0,0 UV-I 0 W/m 0,0 km/h (0 Bft)
31.08.2014 20:16 14,4 C 12,2 C 93 % 1015,6 hPa 0,0 l/m 0 min 0 min 0,0 UV-I 0 W/m 0,0 km/h (0 Bft)
31.08.2014 20:18 14,4 C 11,7 C 93 % 1015,6 hPa 0,0 l/m 0 min 0 min 0,0 UV-I 0 W/m 0,0 km/h (0 Bft)
31.08.2014 20:20 14,4 C 11,7 C 93 % 1015,6 hPa 0,0 l/m 0 min 0 min 0,0 UV-I 0 W/m 0,0 km/h (0 Bft)
31.08.2014 20:22 14,3 C 11,7 C 93 % 1015,6 hPa 0,0 l/m 0 min 0 min 0,0 UV-I 0 W/m 0,0 km/h (0 Bft)
31.08.2014 20:24 14,3 C 11,7 C 93 % 1015,6 hPa 0,0 l/m 0 min 0 min 0,0 UV-I 0 W/m 0,0 km/h (0 Bft)
31.08.2014 20:26 14,2 C 11,7 C 93 % 1015,6 hPa 0,0 l/m 0 min 0 min 0,0 UV-I 0 W/m 0,0 km/h (0 Bft)
31.08.2014 20:28 14,2 C 11,7 C 93 % 1015,7 hPa 0,0 l/m 0 min 0 min 0,0 UV-I 0 W/m 0,0 km/h (0 Bft)
31.08.2014 20:30 14,2 C 11,7 C 93 % 1015,7 hPa 0,0 l/m 0 min 0 min 0,0 UV-I 0 W/m 0,0 km/h (0 Bft)
31.08.2014 20:32 14,2 C 11,7 C 93 % 1015,7 hPa 0,0 l/m 0 min 0 min 0,0 UV-I 0 W/m 0,0 km/h (0 Bft)
31.08.2014 20:34 14,2 C 11,7 C 93 % 1015,7 hPa 0,0 l/m 0 min 0 min 0,0 UV-I 0 W/m 0,0 km/h (0 Bft)
31.08.2014 20:36 14,2 C 11,7 C 93 % 1015,8 hPa 0,0 l/m 0 min 0 min 0,0 UV-I 0 W/m 0,0 km/h (0 Bft)
31.08.2014 20:38 14,2 C 11,7 C 93 % 1015,9 hPa 0,0 l/m 0 min 0 min 0,0 UV-I 0 W/m 0,0 km/h (0 Bft)
31.08.2014 20:39 14,2 C 11,7 C 93 % 1015,8 hPa 0,0 l/m 0 min 0 min 0,0 UV-I 0 W/m 0,0 km/h (0 Bft)
31.08.2014 20:42 14,1 C 11,7 C 93 % 1015,9 hPa 0,0 l/m 0 min 0 min 0,0 UV-I 0 W/m 0,0 km/h (0 Bft)
31.08.2014 20:44 14,0 C 11,7 C 93 % 1015,9 hPa 0,0 l/m 0 min 0 min 0,0 UV-I 0 W/m 7,1 km/h (2 Bft)
31.08.2014 20:46 14,0 C 11,7 C 93 % 1015,9 hPa 0,0 l/m 0 min 0 min 0,0 UV-I 0 W/m 3,5 km/h (1 Bft)
31.08.2014 20:48 14,0 C 11,7 C 93 % 1015,9 hPa 0,0 l/m 0 min 0 min 0,0 UV-I 0 W/m 3,5 km/h (1 Bft)
31.08.2014 20:50 13,9 C 11,7 C 93 % 1015,9 hPa 0,0 l/m 0 min 0 min 0,0 UV-I 0 W/m 3,5 km/h (1 Bft)
31.08.2014 20:52 13,9 C 11,7 C 93 % 1015,9 hPa 0,0 l/m 0 min 0 min 0,0 UV-I 0 W/m 3,5 km/h (1 Bft)
31.08.2014 20:54 13,9 C 11,7 C 93 % 1016,0 hPa 0,0 l/m 0 min 0 min 0,0 UV-I 0 W/m 0,0 km/h (0 Bft)
31.08.2014 20:56 13,8 C 11,7 C 93 % 1016,0 hPa 0,0 l/m 0 min 0 min 0,0 UV-I 0 W/m 0,0 km/h (0 Bft)
31.08.2014 20:58 13,8 C 11,7 C 93 % 1016,0 hPa 0,0 l/m 0 min 0 min 0,0 UV-I 0 W/m 0,0 km/h (0 Bft)
31.08.2014 21:00 13,8 C 11,7 C 93 % 1016,1 hPa 0,0 l/m 0 min 0 min 0,0 UV-I 0 W/m 0,0 km/h (0 Bft)
31.08.2014 21:02 13,8 C 11,7 C 93 % 1016,0 hPa 0,0 l/m 0 min 0 min 0,0 UV-I 0 W/m 0,0 km/h (0 Bft)
31.08.2014 21:04 13,8 C 11,7 C 95 % 1016,0 hPa 0,0 l/m 0 min 0 min 0,0 UV-I 0 W/m 0,0 km/h (0 Bft)
31.08.2014 21:06 13,7 C 11,7 C 93 % 1016,0 hPa 0,0 l/m 0 min 0 min 0,0 UV-I 0 W/m 0,0 km/h (0 Bft)
31.08.2014 21:08 13,7 C 11,7 C 93 % 1016,0 hPa 0,0 l/m 0 min 0 min 0,0 UV-I 0 W/m 0,0 km/h (0 Bft)
31.08.2014 21:10 13,7 C 11,7 C 93 % 1016,1 hPa 0,0 l/m 0 min 0 min 0,0 UV-I 0 W/m 0,0 km/h (0 Bft)
31.08.2014 21:12 13,7 C 11,7 C 93 % 1016,1 hPa 0,0 l/m 0 min 0 min 0,0 UV-I 0 W/m 0,0 km/h (0 Bft)
31.08.2014 21:14 13,7 C 11,7 C 93 % 1016,1 hPa 0,0 l/m 0 min 0 min 0,0 UV-I 0 W/m 3,5 km/h (1 Bft)
31.08.2014 21:16 13,6 C 11,7 C 93 % 1016,2 hPa 0,0 l/m 0 min 0 min 0,0 UV-I 0 W/m 0,0 km/h (0 Bft)
31.08.2014 21:18 13,6 C 11,7 C 93 % 1016,2 hPa 0,0 l/m 0 min 0 min 0,0 UV-I 0 W/m 0,0 km/h (0 Bft)
31.08.2014 21:20 13,6 C 11,7 C 93 % 1016,2 hPa 0,0 l/m 0 min 0 min 0,0 UV-I 0 W/m 0,0 km/h (0 Bft)
31.08.2014 21:22 13,6 C 11,7 C 93 % 1016,2 hPa 0,0 l/m 0 min 0 min 0,0 UV-I 0 W/m 0,0 km/h (0 Bft)
31.08.2014 21:24 13,6 C 11,7 C 93 % 1016,3 hPa 0,0 l/m 0 min 0 min 0,0 UV-I 0 W/m 3,5 km/h (1 Bft)
31.08.2014 21:26 13,6 C 11,7 C 93 % 1016,2 hPa 0,0 l/m 0 min 0 min 0,0 UV-I 0 W/m 0,0 km/h (0 Bft)
31.08.2014 21:28 13,5 C 11,7 C 93 % 1016,2 hPa 0,0 l/m 0 min 0 min 0,0 UV-I 0 W/m 0,0 km/h (0 Bft)
31.08.2014 21:30 13,5 C 11,7 C 93 % 1016,2 hPa 0,0 l/m 0 min 0 min 0,0 UV-I 0 W/m 0,0 km/h (0 Bft)
31.08.2014 21:32 13,4 C 11,7 C 93 % 1016,2 hPa 0,0 l/m 0 min 0 min 0,0 UV-I 0 W/m 0,0 km/h (0 Bft)
31.08.2014 21:34 13,4 C 11,7 C 93 % 1016,3 hPa 0,0 l/m 0 min 0 min 0,0 UV-I 0 W/m 3,5 km/h (1 Bft)
31.08.2014 21:36 13,4 C 11,7 C 93 % 1016,3 hPa 0,0 l/m 0 min 0 min 0,0 UV-I 0 W/m 0,0 km/h (0 Bft)
31.08.2014 21:38 13,4 C 11,7 C 93 % 1016,3 hPa 0,0 l/m 0 min 0 min 0,0 UV-I 0 W/m 0,0 km/h (0 Bft)
31.08.2014 21:40 13,4 C 11,7 C 93 % 1016,4 hPa 0,0 l/m 0 min 0 min 0,0 UV-I 0 W/m 3,5 km/h (1 Bft)
31.08.2014 21:42 13,4 C 11,7 C 93 % 1016,4 hPa 0,0 l/m 0 min 0 min 0,0 UV-I 0 W/m 0,0 km/h (0 Bft)
31.08.2014 21:44 13,3 C 11,7 C 93 % 1016,5 hPa 0,0 l/m 0 min 0 min 0,0 UV-I 0 W/m 0,0 km/h (0 Bft)
31.08.2014 21:46 13,3 C 11,1 C 93 % 1016,4 hPa 0,0 l/m 0 min 0 min 0,0 UV-I 0 W/m 0,0 km/h (0 Bft)
31.08.2014 21:48 13,3 C 11,1 C 93 % 1016,5 hPa 0,0 l/m 0 min 0 min 0,0 UV-I 0 W/m 0,0 km/h (0 Bft)
31.08.2014 21:50 13,3 C 11,7 C 93 % 1016,5 hPa 0,0 l/m 0 min 0 min 0,0 UV-I 0 W/m 0,0 km/h (0 Bft)
31.08.2014 21:52 13,2 C 11,1 C 93 % 1016,5 hPa 0,0 l/m 0 min 0 min 0,0 UV-I 0 W/m 0,0 km/h (0 Bft)
31.08.2014 21:54 13,2 C 11,7 C 93 % 1016,5 hPa 0,0 l/m 0 min 0 min 0,0 UV-I 0 W/m 0,0 km/h (0 Bft)
31.08.2014 21:56 13,2 C 11,1 C 93 % 1016,5 hPa 0,0 l/m 0 min 0 min 0,0 UV-I 0 W/m 0,0 km/h (0 Bft)
31.08.2014 21:58 13,2 C 11,1 C 93 % 1016,6 hPa 0,0 l/m 0 min 0 min 0,0 UV-I 0 W/m 0,0 km/h (0 Bft)
31.08.2014 22:00 13,1 C 11,1 C 93 % 1016,6 hPa 0,0 l/m 0 min 0 min 0,0 UV-I 0 W/m 0,0 km/h (0 Bft)
31.08.2014 22:02 13,1 C 11,1 C 93 % 1016,5 hPa 0,0 l/m 0 min 0 min 0,0 UV-I 0 W/m 3,5 km/h (1 Bft)
31.08.2014 22:04 13,1 C 11,1 C 93 % 1016,5 hPa 0,0 l/m 0 min 0 min 0,0 UV-I 0 W/m 0,0 km/h (0 Bft)
31.08.2014 22:06 13,1 C 11,1 C 93 % 1016,6 hPa 0,0 l/m 0 min 0 min 0,0 UV-I 0 W/m 0,0 km/h (0 Bft)
31.08.2014 22:08 13,0 C 11,1 C 93 % 1016,7 hPa 0,0 l/m 0 min 0 min 0,0 UV-I 0 W/m 0,0 km/h (0 Bft)
31.08.2014 22:10 13,0 C 11,1 C 93 % 1016,7 hPa 0,0 l/m 0 min 0 min 0,0 UV-I 0 W/m 3,5 km/h (1 Bft)
31.08.2014 22:12 13,0 C 11,1 C 93 % 1016,7 hPa 0,0 l/m 0 min 0 min 0,0 UV-I 0 W/m 3,5 km/h (1 Bft)
31.08.2014 22:14 12,9 C 11,1 C 93 % 1016,7 hPa 0,0 l/m 0 min 0 min 0,0 UV-I 0 W/m 3,5 km/h (1 Bft)
31.08.2014 22:16 12,9 C 11,1 C 93 % 1016,7 hPa 0,0 l/m 0 min 0 min 0,0 UV-I 0 W/m 3,5 km/h (1 Bft)
31.08.2014 22:18 12,9 C 11,1 C 93 % 1016,8 hPa 0,0 l/m 0 min 0 min 0,0 UV-I 0 W/m 3,5 km/h (1 Bft)
31.08.2014 22:20 12,9 C 11,1 C 94 % 1016,8 hPa 0,0 l/m 0 min 0 min 0,0 UV-I 0 W/m 0,0 km/h (0 Bft)
31.08.2014 22:22 12,8 C 10,6 C 94 % 1016,8 hPa 0,0 l/m 0 min 0 min 0,0 UV-I 0 W/m 0,0 km/h (0 Bft)
31.08.2014 22:24 12,8 C 10,6 C 94 % 1016,8 hPa 0,0 l/m 0 min 0 min 0,0 UV-I 0 W/m 3,5 km/h (1 Bft)
31.08.2014 22:26 12,8 C 10,6 C 94 % 1016,8 hPa 0,0 l/m 0 min 0 min 0,0 UV-I 0 W/m 0,0 km/h (0 Bft)
31.08.2014 22:28 12,8 C 10,6 C 94 % 1016,8 hPa 0,0 l/m 0 min 0 min 0,0 UV-I 0 W/m 0,0 km/h (0 Bft)
31.08.2014 22:30 12,7 C 10,6 C 94 % 1016,8 hPa 0,0 l/m 0 min 0 min 0,0 UV-I 0 W/m 0,0 km/h (0 Bft)
31.08.2014 22:32 12,7 C 10,6 C 93 % 1016,8 hPa 0,0 l/m 0 min 0 min 0,0 UV-I 0 W/m 0,0 km/h (0 Bft)
31.08.2014 22:34 12,7 C 10,6 C 94 % 1016,8 hPa 0,0 l/m 0 min 0 min 0,0 UV-I 0 W/m 0,0 km/h (0 Bft)
31.08.2014 22:36 12,7 C 10,6 C 94 % 1016,9 hPa 0,0 l/m 0 min 0 min 0,0 UV-I 0 W/m 3,5 km/h (1 Bft)
31.08.2014 22:38 12,6 C 10,6 C 94 % 1016,9 hPa 0,0 l/m 0 min 0 min 0,0 UV-I 0 W/m 0,0 km/h (0 Bft)
31.08.2014 22:40 12,6 C 10,6 C 94 % 1016,9 hPa 0,0 l/m 0 min 0 min 0,0 UV-I 0 W/m 0,0 km/h (0 Bft)
31.08.2014 22:42 12,6 C 10,6 C 94 % 1016,9 hPa 0,0 l/m 0 min 0 min 0,0 UV-I 0 W/m 0,0 km/h (0 Bft)
31.08.2014 22:44 12,6 C 10,6 C 94 % 1016,9 hPa 0,0 l/m 0 min 0 min 0,0 UV-I 0 W/m 0,0 km/h (0 Bft)
31.08.2014 22:46 12,5 C 10,6 C 94 % 1016,9 hPa 0,0 l/m 0 min 0 min 0,0 UV-I 0 W/m 3,5 km/h (1 Bft)
31.08.2014 22:48 12,5 C 10,6 C 94 % 1016,9 hPa 0,0 l/m 0 min 0 min 0,0 UV-I 0 W/m 0,0 km/h (0 Bft)
31.08.2014 22:50 12,5 C 10,6 C 94 % 1016,9 hPa 0,0 l/m 0 min 0 min 0,0 UV-I 0 W/m 3,5 km/h (1 Bft)
31.08.2014 22:52 12,4 C 10,6 C 94 % 1017,0 hPa 0,0 l/m 0 min 0 min 0,0 UV-I 0 W/m 3,5 km/h (1 Bft)
31.08.2014 22:54 12,4 C 10,6 C 94 % 1017,0 hPa 0,0 l/m 0 min 0 min 0,0 UV-I 0 W/m 3,5 km/h (1 Bft)
31.08.2014 22:56 12,4 C 10,6 C 94 % 1017,0 hPa 0,0 l/m 0 min 0 min 0,0 UV-I 0 W/m 10,7 km/h (2 Bft)
31.08.2014 22:58 12,4 C 10,6 C 94 % 1017,0 hPa 0,0 l/m 0 min 0 min 0,0 UV-I 0 W/m 7,1 km/h (2 Bft)
31.08.2014 23:00 12,4 C 10,6 C 94 % 1017,0 hPa 0,0 l/m 0 min 0 min 0,0 UV-I 0 W/m 3,5 km/h (1 Bft)
31.08.2014 23:02 12,3 C 10,6 C 94 % 1017,0 hPa 0,0 l/m 0 min 0 min 0,0 UV-I 0 W/m 10,7 km/h (2 Bft)
31.08.2014 23:04 12,3 C 10,6 C 94 % 1017,0 hPa 0,0 l/m 0 min 0 min 0,0 UV-I 0 W/m 3,5 km/h (1 Bft)
31.08.2014 23:06 12,3 C 10,6 C 94 % 1017,1 hPa 0,0 l/m 0 min 0 min 0,0 UV-I 0 W/m 0,0 km/h (0 Bft)
31.08.2014 23:08 12,3 C 10,6 C 94 % 1017,0 hPa 0,0 l/m 0 min 0 min 0,0 UV-I 0 W/m 0,0 km/h (0 Bft)
31.08.2014 23:10 12,3 C 10,6 C 94 % 1017,1 hPa 0,0 l/m 0 min 0 min 0,0 UV-I 0 W/m 0,0 km/h (0 Bft)
31.08.2014 23:12 12,2 C 10,6 C 94 % 1017,1 hPa 0,0 l/m 0 min 0 min 0,0 UV-I 0 W/m 0,0 km/h (0 Bft)
31.08.2014 23:14 12,2 C 10,6 C 94 % 1017,1 hPa 0,0 l/m 0 min 0 min 0,0 UV-I 0 W/m 0,0 km/h (0 Bft)
31.08.2014 23:16 12,2 C 10,6 C 94 % 1017,1 hPa 0,0 l/m 0 min 0 min 0,0 UV-I 0 W/m 0,0 km/h (0 Bft)
31.08.2014 23:18 12,2 C 10,6 C 94 % 1017,2 hPa 0,0 l/m 0 min 0 min 0,0 UV-I 0 W/m 0,0 km/h (0 Bft)
31.08.2014 23:20 12,2 C 10,6 C 94 % 1017,3 hPa 0,0 l/m 0 min 0 min 0,0 UV-I 0 W/m 3,5 km/h (1 Bft)
31.08.2014 23:22 12,2 C 10,6 C 94 % 1017,2 hPa 0,0 l/m 0 min 0 min 0,0 UV-I 0 W/m 3,5 km/h (1 Bft)
31.08.2014 23:24 12,1 C 10,6 C 94 % 1017,2 hPa 0,0 l/m 0 min 0 min 0,0 UV-I 0 W/m 0,0 km/h (0 Bft)
31.08.2014 23:26 12,1 C 10,6 C 94 % 1017,2 hPa 0,0 l/m 0 min 0 min 0,0 UV-I 0 W/m 3,5 km/h (1 Bft)
31.08.2014 23:28 12,1 C 10,6 C 94 % 1017,2 hPa 0,0 l/m 0 min 0 min 0,0 UV-I 0 W/m 3,5 km/h (1 Bft)
31.08.2014 23:30 12,1 C 10,6 C 94 % 1017,4 hPa 0,0 l/m 0 min 0 min 0,0 UV-I 0 W/m 0,0 km/h (0 Bft)
31.08.2014 23:32 12,1 C 10,6 C 94 % 1017,3 hPa 0,0 l/m 0 min 0 min 0,0 UV-I 0 W/m 0,0 km/h (0 Bft)
31.08.2014 23:34 12,1 C 10,6 C 94 % 1017,4 hPa 0,0 l/m 0 min 0 min 0,0 UV-I 0 W/m 0,0 km/h (0 Bft)
31.08.2014 23:36 12,1 C 10,6 C 94 % 1017,4 hPa 0,0 l/m 0 min 0 min 0,0 UV-I 0 W/m 0,0 km/h (0 Bft)
31.08.2014 23:38 12,0 C 10,6 C 94 % 1017,4 hPa 0,0 l/m 0 min 0 min 0,0 UV-I 0 W/m 0,0 km/h (0 Bft)
31.08.2014 23:40 12,0 C 10,6 C 94 % 1017,5 hPa 0,0 l/m 0 min 0 min 0,0 UV-I 0 W/m 3,5 km/h (1 Bft)
31.08.2014 23:42 12,0 C 10,6 C 94 % 1017,5 hPa 0,0 l/m 0 min 0 min 0,0 UV-I 0 W/m 0,0 km/h (0 Bft)
31.08.2014 23:44 12,0 C 10,6 C 95 % 1017,5 hPa 0,0 l/m 0 min 0 min 0,0 UV-I 0 W/m 0,0 km/h (0 Bft)
31.08.2014 23:46 11,9 C 10,6 C 95 % 1017,5 hPa 0,0 l/m 0 min 0 min 0,0 UV-I 0 W/m 0,0 km/h (0 Bft)
31.08.2014 23:48 11,9 C 10,6 C 95 % 1017,6 hPa 0,0 l/m 0 min 0 min 0,0 UV-I 0 W/m 0,0 km/h (0 Bft)
31.08.2014 23:50 11,9 C 10,0 C 95 % 1017,5 hPa 0,0 l/m 0 min 0 min 0,0 UV-I 0 W/m 14,2 km/h (3 Bft)
31.08.2014 23:52 11,9 C 10,0 C 95 % 1017,6 hPa 0,0 l/m 0 min 0 min 0,0 UV-I 0 W/m 10,7 km/h (2 Bft)
31.08.2014 23:54 11,9 C 10,0 C 95 % 1017,7 hPa 0,0 l/m 0 min 0 min 0,0 UV-I 0 W/m 0,0 km/h (0 Bft)
31.08.2014 23:56 11,9 C 10,0 C 95 % 1017,6 hPa 0,0 l/m 0 min 0 min 0,0 UV-I 0 W/m 10,7 km/h (2 Bft)
31.08.2014 23:58 11,9 C 10,6 C 95 % 1017,7 hPa 0,0 l/m 0 min 0 min 0,0 UV-I 0 W/m 10,7 km/h (2 Bft)
_ Min-Zeit 23:44 23:50 14:50 14:18 - - - - - 00:06
Minimum _ 11,9 C 10,0 C 78 % 1013,4 hPa - - - - - 0,0 km/h (0 Bft)
_ Max-Zeit 14:30 14:26 08:38 23:54 13:44 07:28 11:02 14:20 14:28 14:48
Maximum _ 18,9 C 17,8 C 99 % 1017,7 hPa 3,2 l/m 2 min 2 min 3,5 UV-I 803 W/m 53,0 km/h
W (7 Bft)
Durchschnitt _ 14,8 C 13,2 C 94 % 1014,7 hPa #12,6 l/m #1:28 h #1:25 h 1,5 UV-I 184 W/m 11,1 km/h (2 Bft)
© 2014 W. Hausmann